Wetterdaten: Mittwoch, 01.12.2021
Datum Zeit Temp. Aussen Temp. o. S. Temp +5cm Feuchte Auss Luftdruck Regen Sonnenschein Regendauer Solar Windben Empfang
01.12.2021 00:00 9,1 C 8,3 C 8,3 C 98 % 1004,7 hPa 0,0 l/m 0 min 2 min 0 W/m 16,1 km/h (3 Bft) 97,87 %
01.12.2021 00:02 9,1 C 8,3 C 8,3 C 98 % 1004,7 hPa 0,0 l/m 0 min 2 min 0 W/m 29,0 km/h (5 Bft) 100,00 %
01.12.2021 00:04 9,0 C 8,3 C 8,3 C 98 % 1004,7 hPa 0,0 l/m 0 min 2 min 0 W/m 16,1 km/h (3 Bft) 95,74 %
01.12.2021 00:08 9,0 C 8,3 C 8,3 C 98 % 1004,6 hPa 0,2 l/m 0 min 4 min 0 W/m 25,7 km/h (4 Bft) 95,24 %
01.12.2021 00:10 9,0 C 8,3 C 8,3 C 98 % 1004,5 hPa 0,0 l/m 0 min 2 min 0 W/m 19,3 km/h (3 Bft) 96,55 %
01.12.2021 00:12 9,0 C 8,3 C 8,3 C 98 % 1004,5 hPa 0,0 l/m 0 min 2 min 0 W/m 22,5 km/h (4 Bft) 94,29 %
01.12.2021 00:14 9,0 C 8,3 C 8,3 C 98 % 1004,5 hPa 0,0 l/m 0 min 2 min 0 W/m 19,3 km/h (3 Bft) 96,61 %
01.12.2021 00:16 9,0 C 8,3 C 8,3 C 98 % 1004,4 hPa 0,0 l/m 0 min 0 min 0 W/m 25,7 km/h (4 Bft) 95,74 %
01.12.2021 00:18 9,0 C 8,3 C 8,3 C 98 % 1004,4 hPa 0,0 l/m 0 min 0 min 0 W/m 22,5 km/h (4 Bft) 93,62 %
01.12.2021 00:20 9,0 C 8,3 C 8,3 C 98 % 1004,3 hPa 0,0 l/m 0 min 0 min 0 W/m 29,0 km/h (5 Bft) 100,00 %
01.12.2021 00:22 9,0 C 8,3 C 8,3 C 98 % 1004,3 hPa 0,0 l/m 0 min 0 min 0 W/m 19,3 km/h (3 Bft) 93,88 %
01.12.2021 00:24 9,0 C 8,3 C 8,3 C 98 % 1004,3 hPa 0,0 l/m 0 min 0 min 0 W/m 29,0 km/h (5 Bft) 95,65 %
01.12.2021 00:26 9,0 C 8,3 C 8,3 C 98 % 1004,3 hPa 0,0 l/m 0 min 0 min 0 W/m 19,3 km/h (3 Bft) 91,49 %
01.12.2021 00:28 9,0 C 8,3 C 8,3 C 98 % 1004,2 hPa 0,0 l/m 0 min 0 min 0 W/m 19,3 km/h (3 Bft) 93,62 %
01.12.2021 00:30 9,0 C 8,3 C 8,3 C 98 % 1004,2 hPa 0,0 l/m 0 min 0 min 0 W/m 19,3 km/h (3 Bft) 95,74 %
01.12.2021 00:32 9,0 C 8,3 C 8,3 C 98 % 1004,1 hPa 0,0 l/m 0 min 0 min 0 W/m 22,5 km/h (4 Bft) 95,74 %
01.12.2021 00:34 9,0 C 8,3 C 8,3 C 98 % 1004,0 hPa 0,0 l/m 0 min 0 min 0 W/m 19,3 km/h (3 Bft) 95,74 %
01.12.2021 00:36 9,0 C 8,3 C 8,3 C 98 % 1004,1 hPa 0,0 l/m 0 min 0 min 0 W/m 25,7 km/h (4 Bft) 93,48 %
01.12.2021 00:38 8,9 C 8,3 C 8,3 C 98 % 1004,2 hPa 0,0 l/m 0 min 0 min 0 W/m 25,7 km/h (4 Bft) 93,62 %
01.12.2021 00:40 8,9 C 8,3 C 8,3 C 98 % 1004,1 hPa 0,0 l/m 0 min 0 min 0 W/m 25,7 km/h (4 Bft) 89,36 %
01.12.2021 00:42 8,9 C 8,3 C 8,3 C 98 % 1004,1 hPa 0,0 l/m 0 min 0 min 0 W/m 41,8 km/h (6 Bft) 93,62 %
01.12.2021 00:44 8,9 C 8,3 C 8,3 C 98 % 1004,1 hPa 0,0 l/m 0 min 0 min 0 W/m 32,2 km/h (5 Bft) 91,49 %
01.12.2021 00:46 8,9 C 8,3 C 8,3 C 98 % 1004,0 hPa 0,0 l/m 0 min 0 min 0 W/m 25,7 km/h (4 Bft) 93,62 %
01.12.2021 00:48 8,9 C 8,3 C 8,3 C 98 % 1004,1 hPa 0,0 l/m 0 min 0 min 0 W/m 29,0 km/h (5 Bft) 93,48 %
01.12.2021 00:50 8,8 C 8,3 C 8,3 C 98 % 1004,0 hPa 0,0 l/m 0 min 0 min 0 W/m 22,5 km/h (4 Bft) 95,74 %
01.12.2021 00:52 8,8 C 8,3 C 8,3 C 98 % 1004,0 hPa 0,0 l/m 0 min 0 min 0 W/m 35,4 km/h (5 Bft) 95,74 %
01.12.2021 00:54 8,8 C 8,3 C 8,3 C 98 % 1003,9 hPa 0,0 l/m 0 min 0 min 0 W/m 16,1 km/h (3 Bft) 93,62 %
01.12.2021 00:56 8,8 C 8,3 C 8,3 C 98 % 1003,8 hPa 0,0 l/m 0 min 0 min 0 W/m 41,8 km/h (6 Bft) 93,62 %
01.12.2021 00:58 8,8 C 8,3 C 8,3 C 98 % 1003,9 hPa 0,0 l/m 0 min 0 min 0 W/m 35,4 km/h (5 Bft) 97,87 %
01.12.2021 01:00 8,8 C 8,3 C 8,3 C 98 % 1003,9 hPa 0,0 l/m 0 min 0 min 0 W/m 25,7 km/h (4 Bft) 95,65 %
01.12.2021 01:02 8,8 C 8,3 C 8,3 C 98 % 1003,8 hPa 0,0 l/m 0 min 0 min 0 W/m 25,7 km/h (4 Bft) 97,92 %
01.12.2021 01:04 8,8 C 8,3 C 7,8 C 98 % 1003,8 hPa 0,0 l/m 0 min 0 min 0 W/m 22,5 km/h (4 Bft) 93,62 %
01.12.2021 01:06 8,8 C 8,3 C 8,3 C 98 % 1003,7 hPa 0,0 l/m 0 min 0 min 0 W/m 35,4 km/h (5 Bft) 100,00 %
01.12.2021 01:08 8,8 C 8,3 C 8,3 C 98 % 1003,7 hPa 0,0 l/m 0 min 0 min 0 W/m 29,0 km/h (5 Bft) 100,00 %
01.12.2021 01:10 8,8 C 8,3 C 7,8 C 98 % 1003,8 hPa 0,0 l/m 0 min 0 min 0 W/m 35,4 km/h (5 Bft) 97,87 %
01.12.2021 01:12 8,8 C 7,8 C 7,8 C 98 % 1003,6 hPa 0,0 l/m 0 min 0 min 0 W/m 22,5 km/h (4 Bft) 97,83 %
01.12.2021 01:14 8,8 C 8,3 C 7,8 C 98 % 1003,6 hPa 0,0 l/m 0 min 0 min 0 W/m 32,2 km/h (5 Bft) 97,87 %
01.12.2021 01:16 8,8 C 8,3 C 7,8 C 98 % 1003,6 hPa 0,0 l/m 0 min 0 min 0 W/m 29,0 km/h (5 Bft) 97,87 %
01.12.2021 01:18 8,8 C 8,3 C 7,8 C 98 % 1003,5 hPa 0,0 l/m 0 min 0 min 0 W/m 35,4 km/h (5 Bft) 100,00 %
01.12.2021 01:20 8,8 C 8,3 C 7,8 C 98 % 1003,4 hPa 0,0 l/m 0 min 0 min 0 W/m 22,5 km/h (4 Bft) 100,00 %
01.12.2021 01:22 8,8 C 8,3 C 8,3 C 98 % 1003,3 hPa 0,0 l/m 0 min 0 min 0 W/m 35,4 km/h (5 Bft) 100,00 %
01.12.2021 01:24 8,8 C 8,3 C 8,3 C 98 % 1003,3 hPa 0,0 l/m 0 min 0 min 0 W/m 32,2 km/h (5 Bft) 100,00 %
01.12.2021 01:26 8,8 C 8,3 C 7,8 C 98 % 1003,2 hPa 0,0 l/m 0 min 0 min 0 W/m 22,5 km/h (4 Bft) 97,87 %
01.12.2021 01:28 8,8 C 8,3 C 7,8 C 98 % 1003,1 hPa 0,0 l/m 0 min 0 min 0 W/m 29,0 km/h (5 Bft) 100,00 %
01.12.2021 01:30 8,8 C 8,3 C 7,8 C 98 % 1003,3 hPa 0,0 l/m 0 min 0 min 0 W/m 32,2 km/h (5 Bft) 97,87 %
01.12.2021 01:32 8,8 C 8,3 C 7,8 C 98 % 1003,1 hPa 0,0 l/m 0 min 0 min 0 W/m 38,6 km/h (5 Bft) 100,00 %
01.12.2021 01:34 8,8 C 8,3 C 7,8 C 98 % 1003,2 hPa 0,0 l/m 0 min 0 min 0 W/m 41,8 km/h (6 Bft) 100,00 %
01.12.2021 01:36 8,8 C 8,3 C 7,8 C 98 % 1002,9 hPa 0,0 l/m 0 min 0 min 0 W/m 25,7 km/h (4 Bft) 100,00 %
01.12.2021 01:38 8,8 C 8,3 C 8,3 C 98 % 1002,9 hPa 0,0 l/m 0 min 0 min 0 W/m 51,5 km/h (7 Bft) 100,00 %
01.12.2021 01:40 8,8 C 8,3 C 7,8 C 98 % 1002,8 hPa 0,0 l/m 0 min 0 min 0 W/m 29,0 km/h (5 Bft) 100,00 %
01.12.2021 01:42 8,8 C 8,3 C 7,8 C 98 % 1002,8 hPa 0,0 l/m 0 min 0 min 0 W/m 29,0 km/h (5 Bft) 100,00 %
01.12.2021 01:44 8,8 C 8,3 C 7,8 C 98 % 1002,7 hPa 0,0 l/m 0 min 0 min 0 W/m 25,7 km/h (4 Bft) 100,00 %
01.12.2021 01:46 8,8 C 8,3 C 7,8 C 98 % 1002,7 hPa 0,0 l/m 0 min 0 min 0 W/m 32,2 km/h (5 Bft) 100,00 %
01.12.2021 01:48 8,8 C 8,3 C 7,8 C 98 % 1002,6 hPa 0,0 l/m 0 min 0 min 0 W/m 29,0 km/h (5 Bft) 100,00 %
01.12.2021 01:50 8,8 C 8,3 C 7,8 C 98 % 1002,6 hPa 0,0 l/m 0 min 0 min 0 W/m 22,5 km/h (4 Bft) 97,87 %
01.12.2021 01:52 8,8 C 8,3 C 7,8 C 98 % 1002,6 hPa 0,0 l/m 0 min 0 min 0 W/m 38,6 km/h (5 Bft) 100,00 %
01.12.2021 01:54 8,8 C 8,3 C 7,8 C 98 % 1002,5 hPa 0,0 l/m 0 min 0 min 0 W/m 29,0 km/h (5 Bft) 100,00 %
01.12.2021 01:56 8,8 C 8,3 C 7,8 C 97 % 1002,5 hPa 0,0 l/m 0 min 0 min 0 W/m 41,8 km/h (6 Bft) 97,87 %
01.12.2021 01:58 8,8 C 8,3 C 7,8 C 97 % 1002,6 hPa 0,0 l/m 0 min 0 min 0 W/m 41,8 km/h (6 Bft) 97,83 %
01.12.2021 02:00 8,8 C 8,3 C 7,8 C 97 % 1002,4 hPa 0,0 l/m 0 min 0 min 0 W/m 22,5 km/h (4 Bft) 100,00 %
01.12.2021 02:02 8,8 C 8,3 C 7,8 C 97 % 1002,4 hPa 0,0 l/m 0 min 0 min 0 W/m 48,3 km/h (6 Bft) 100,00 %
01.12.2021 02:04 8,8 C 8,3 C 7,8 C 97 % 1002,4 hPa 0,0 l/m 0 min 0 min 0 W/m 29,0 km/h (5 Bft) 97,87 %
01.12.2021 02:06 8,8 C 8,3 C 7,8 C 97 % 1002,3 hPa 0,0 l/m 0 min 0 min 0 W/m 22,5 km/h (4 Bft) 100,00 %
01.12.2021 02:08 8,8 C 8,3 C 7,8 C 97 % 1002,4 hPa 0,0 l/m 0 min 0 min 0 W/m 29,0 km/h (5 Bft) 100,00 %
01.12.2021 02:10 8,8 C 8,3 C 7,8 C 97 % 1002,2 hPa 0,0 l/m 0 min 0 min 0 W/m 38,6 km/h (5 Bft) 100,00 %
01.12.2021 02:12 8,8 C 8,3 C 7,8 C 97 % 1002,3 hPa 0,0 l/m 0 min 0 min 0 W/m 32,2 km/h (5 Bft) 100,00 %
01.12.2021 02:14 8,8 C 8,3 C 7,8 C 97 % 1002,2 hPa 0,0 l/m 0 min 0 min 0 W/m 29,0 km/h (5 Bft) 100,00 %
01.12.2021 02:16 8,9 C 8,3 C 7,8 C 97 % 1002,2 hPa 0,0 l/m 0 min 0 min 0 W/m 32,2 km/h (5 Bft) 100,00 %
01.12.2021 02:18 8,9 C 8,3 C 7,8 C 97 % 1002,1 hPa 0,0 l/m 0 min 0 min 0 W/m 32,2 km/h (5 Bft) 100,00 %
01.12.2021 02:20 8,9 C 8,3 C 7,8 C 97 % 1002,0 hPa 0,0 l/m 0 min 0 min 0 W/m 32,2 km/h (5 Bft) 93,62 %
01.12.2021 02:22 8,9 C 8,3 C 7,8 C 97 % 1002,0 hPa 0,0 l/m 0 min 0 min 0 W/m 29,0 km/h (5 Bft) 100,00 %
01.12.2021 02:24 8,9 C 8,3 C 7,8 C 97 % 1002,0 hPa 0,0 l/m 0 min 0 min 0 W/m 29,0 km/h (5 Bft) 100,00 %
01.12.2021 02:26 8,9 C 8,3 C 7,8 C 97 % 1002,1 hPa 0,0 l/m 0 min 0 min 0 W/m 45,1 km/h (6 Bft) 100,00 %
01.12.2021 02:28 8,9 C 8,3 C 7,8 C 96 % 1001,9 hPa 0,0 l/m 0 min 0 min 0 W/m 41,8 km/h (6 Bft) 95,74 %
01.12.2021 02:30 8,9 C 8,3 C 7,8 C 96 % 1001,9 hPa 0,0 l/m 0 min 0 min 0 W/m 38,6 km/h (5 Bft) 97,87 %
01.12.2021 02:32 8,9 C 8,3 C 7,8 C 96 % 1001,9 hPa 0,0 l/m 0 min 0 min 0 W/m 25,7 km/h (4 Bft) 95,83 %
01.12.2021 02:34 8,9 C 8,3 C 7,8 C 96 % 1001,9 hPa 0,0 l/m 0 min 0 min 0 W/m 25,7 km/h (4 Bft) 97,83 %
01.12.2021 02:36 8,9 C 8,3 C 7,8 C 96 % 1001,9 hPa 0,0 l/m 0 min 0 min 0 W/m 32,2 km/h (5 Bft) 97,87 %
01.12.2021 02:38 8,9 C 8,3 C 7,8 C 96 % 1001,9 hPa 0,0 l/m 0 min 0 min 0 W/m 29,0 km/h (5 Bft) 93,62 %
01.12.2021 02:40 8,9 C 8,3 C 7,8 C 96 % 1001,7 hPa 0,0 l/m 0 min 0 min 0 W/m 35,4 km/h (5 Bft) 95,74 %
01.12.2021 02:42 8,9 C 8,3 C 7,8 C 96 % 1001,7 hPa 0,0 l/m 0 min 0 min 0 W/m 45,1 km/h (6 Bft) 95,74 %
01.12.2021 02:44 8,9 C 8,3 C 7,8 C 96 % 1001,5 hPa 0,0 l/m 0 min 0 min 0 W/m 32,2 km/h (5 Bft) 95,74 %
01.12.2021 02:46 8,9 C 8,3 C 7,8 C 96 % 1001,5 hPa 0,0 l/m 0 min 0 min 0 W/m 45,1 km/h (6 Bft) 95,65 %
01.12.2021 02:48 8,8 C 8,3 C 7,8 C 96 % 1001,3 hPa 0,0 l/m 0 min 0 min 0 W/m 45,1 km/h (6 Bft) 95,74 %
01.12.2021 02:50 8,8 C 8,3 C 7,8 C 96 % 1001,4 hPa 0,0 l/m 0 min 0 min 0 W/m 48,3 km/h (6 Bft) 63,83 %
01.12.2021 02:52 8,8 C 8,3 C 7,8 C 96 % 1001,4 hPa 0,0 l/m 0 min 0 min 0 W/m 32,2 km/h (5 Bft) 85,71 %
01.12.2021 02:54 8,8 C 8,3 C 7,8 C 96 % 1001,5 hPa 0,0 l/m 0 min 0 min 0 W/m 38,6 km/h (5 Bft) 95,74 %
01.12.2021 02:56 8,8 C 8,3 C 7,8 C 95 % 1001,5 hPa 0,0 l/m 0 min 0 min 0 W/m 41,8 km/h (6 Bft) 95,74 %
01.12.2021 02:58 8,8 C 8,3 C 7,8 C 95 % 1001,7 hPa 0,0 l/m 0 min 0 min 0 W/m 38,6 km/h (5 Bft) 95,65 %
01.12.2021 03:00 8,8 C 8,3 C 7,8 C 95 % 1001,2 hPa 0,0 l/m 0 min 0 min 0 W/m 35,4 km/h (5 Bft) 97,87 %
01.12.2021 03:02 8,8 C 8,3 C 7,8 C 95 % 1001,3 hPa 0,0 l/m 0 min 0 min 0 W/m 41,8 km/h (6 Bft) 97,87 %
01.12.2021 03:04 8,8 C 8,3 C 7,8 C 95 % 1001,1 hPa 0,0 l/m 0 min 0 min 0 W/m 35,4 km/h (5 Bft) 97,87 %
01.12.2021 03:06 8,8 C 8,3 C 7,8 C 95 % 1001,3 hPa 0,0 l/m 0 min 0 min 0 W/m 41,8 km/h (6 Bft) 97,87 %
01.12.2021 03:08 8,8 C 8,3 C 7,8 C 95 % 1001,3 hPa 0,0 l/m 0 min 0 min 0 W/m 51,5 km/h (7 Bft) 93,62 %
01.12.2021 03:10 8,8 C 8,3 C 7,8 C 95 % 1001,1 hPa 0,0 l/m 0 min 0 min 0 W/m 29,0 km/h (5 Bft) 97,83 %
01.12.2021 03:12 8,8 C 8,3 C 7,8 C 95 % 1001,0 hPa 0,0 l/m 0 min 0 min 0 W/m 51,5 km/h (7 Bft) 95,74 %
01.12.2021 03:14 8,8 C 8,3 C 7,8 C 95 % 1001,1 hPa 0,0 l/m 0 min 0 min 0 W/m 41,8 km/h (6 Bft) 93,62 %
01.12.2021 03:16 8,8 C 8,3 C 7,8 C 95 % 1000,9 hPa 0,0 l/m 0 min 0 min 0 W/m 41,8 km/h (6 Bft) 93,62 %
01.12.2021 03:18 8,8 C 8,3 C 7,8 C 95 % 1000,9 hPa 0,0 l/m 0 min 0 min 0 W/m 29,0 km/h (5 Bft) 97,87 %
01.12.2021 03:20 8,8 C 8,3 C 7,8 C 95 % 1000,9 hPa 0,0 l/m 0 min 0 min 0 W/m 41,8 km/h (6 Bft) 97,87 %
01.12.2021 03:22 8,8 C 8,3 C 7,8 C 95 % 1000,9 hPa 0,0 l/m 0 min 0 min 0 W/m 29,0 km/h (5 Bft) 100,00 %
01.12.2021 03:24 8,8 C 8,3 C 7,8 C 95 % 1000,8 hPa 0,0 l/m 0 min 0 min 0 W/m 38,6 km/h (5 Bft) 97,87 %
01.12.2021 03:26 8,7 C 8,3 C 7,8 C 94 % 1000,7 hPa 0,0 l/m 0 min 0 min 0 W/m 45,1 km/h (6 Bft) 97,87 %
01.12.2021 03:28 8,7 C 8,3 C 7,8 C 94 % 1000,8 hPa 0,0 l/m 0 min 0 min 0 W/m 38,6 km/h (5 Bft) 97,87 %
01.12.2021 03:30 8,7 C 8,3 C 7,8 C 94 % 1000,8 hPa 0,0 l/m 0 min 0 min 0 W/m 38,6 km/h (5 Bft) 97,87 %
01.12.2021 03:32 8,7 C 8,3 C 7,8 C 94 % 1000,8 hPa 0,0 l/m 0 min 0 min 0 W/m 48,3 km/h (6 Bft) 95,65 %
01.12.2021 03:34 8,7 C 8,3 C 7,8 C 94 % 1000,7 hPa 0,0 l/m 0 min 0 min 0 W/m 38,6 km/h (5 Bft) 97,87 %
01.12.2021 03:36 8,7 C 8,3 C 7,8 C 94 % 1000,6 hPa 0,0 l/m 0 min 0 min 0 W/m 29,0 km/h (5 Bft) 97,87 %
01.12.2021 03:38 8,7 C 8,3 C 7,8 C 94 % 1000,5 hPa 0,0 l/m 0 min 0 min 0 W/m 35,4 km/h (5 Bft) 97,87 %
01.12.2021 03:40 8,7 C 8,3 C 7,2 C 94 % 1000,6 hPa 0,0 l/m 0 min 0 min 0 W/m 38,6 km/h (5 Bft) 97,87 %
01.12.2021 03:42 8,7 C 8,3 C 7,2 C 94 % 1000,6 hPa 0,0 l/m 0 min 0 min 0 W/m 32,2 km/h (5 Bft) 97,87 %
01.12.2021 03:44 8,7 C 8,3 C 7,2 C 94 % 1000,6 hPa 0,0 l/m 0 min 0 min 0 W/m 38,6 km/h (5 Bft) 95,65 %
01.12.2021 03:46 8,8 C 8,3 C 7,2 C 94 % 1000,5 hPa 0,0 l/m 0 min 0 min 0 W/m 32,2 km/h (5 Bft) 97,87 %
01.12.2021 03:48 8,8 C 8,3 C 7,2 C 94 % 1000,5 hPa 0,0 l/m 0 min 0 min 0 W/m 41,8 km/h (6 Bft) 97,87 %
01.12.2021 03:50 8,7 C 8,3 C 7,2 C 93 % 1000,5 hPa 0,0 l/m 0 min 0 min 0 W/m 35,4 km/h (5 Bft) 95,74 %
01.12.2021 03:52 8,8 C 8,3 C 7,2 C 93 % 1000,4 hPa 0,0 l/m 0 min 0 min 0 W/m 41,8 km/h (6 Bft) 95,74 %
01.12.2021 03:54 8,8 C 8,3 C 7,2 C 93 % 1000,4 hPa 0,0 l/m 0 min 0 min 0 W/m 38,6 km/h (5 Bft) 97,87 %
01.12.2021 03:56 8,8 C 8,3 C 7,2 C 93 % 1000,4 hPa 0,0 l/m 0 min 0 min 0 W/m 54,7 km/h (7 Bft) 97,83 %
01.12.2021 03:58 8,8 C 8,3 C 7,2 C 93 % 1000,2 hPa 0,0 l/m 0 min 0 min 0 W/m 48,3 km/h (6 Bft) 100,00 %
01.12.2021 04:00 8,8 C 8,3 C 7,2 C 93 % 1000,3 hPa 0,0 l/m 0 min 0 min 0 W/m 35,4 km/h (5 Bft) 95,74 %
01.12.2021 04:05 8,8 C 8,3 C 7,2 C 92 % 1000,2 hPa 0,0 l/m 0 min 0 min 0 W/m 25,7 km/h (4 Bft) 100,00 %
01.12.2021 04:06 8,8 C 8,3 C 7,2 C 92 % 1000,2 hPa 0,0 l/m 0 min 0 min 0 W/m 38,6 km/h (5 Bft) 100,00 %
01.12.2021 04:08 8,8 C 8,3 C 7,2 C 92 % 1000,0 hPa 0,0 l/m 0 min 0 min 0 W/m 29,0 km/h (5 Bft) 100,00 %
01.12.2021 04:10 8,8 C 8,3 C 7,2 C 92 % 1000,1 hPa 0,0 l/m 0 min 0 min 0 W/m 35,4 km/h (5 Bft) 100,00 %
01.12.2021 04:12 8,8 C 8,3 C 7,2 C 92 % 1000,1 hPa 0,0 l/m 0 min 0 min 0 W/m 45,1 km/h (6 Bft) 97,87 %
01.12.2021 04:14 8,8 C 8,3 C 7,2 C 92 % 1000,0 hPa 0,0 l/m 0 min 0 min 0 W/m 35,4 km/h (5 Bft) 97,87 %
01.12.2021 04:16 8,7 C 8,3 C 7,2 C 92 % 1000,1 hPa 0,0 l/m 0 min 0 min 0 W/m 48,3 km/h (6 Bft) 100,00 %
01.12.2021 04:18 8,8 C 8,3 C 7,2 C 92 % 1000,0 hPa 0,0 l/m 0 min 0 min 0 W/m 32,2 km/h (5 Bft) 100,00 %
01.12.2021 04:20 8,7 C 7,8 C 7,2 C 92 % 1000,0 hPa 0,0 l/m 0 min 0 min 0 W/m 32,2 km/h (5 Bft) 100,00 %
01.12.2021 04:22 8,7 C 7,8 C 7,8 C 92 % 999,8 hPa 0,0 l/m 0 min 0 min 0 W/m 35,4 km/h (5 Bft) 100,00 %
01.12.2021 04:24 8,7 C 7,8 C 7,8 C 92 % 999,8 hPa 0,0 l/m 0 min 0 min 0 W/m 38,6 km/h (5 Bft) 97,87 %
01.12.2021 04:26 8,6 C 7,8 C 7,2 C 92 % 999,9 hPa 0,0 l/m 0 min 0 min 0 W/m 41,8 km/h (6 Bft) 97,87 %
01.12.2021 04:28 8,6 C 7,8 C 7,2 C 92 % 999,8 hPa 0,0 l/m 0 min 0 min 0 W/m 25,7 km/h (4 Bft) 97,87 %
01.12.2021 04:30 8,6 C 7,8 C 7,2 C 92 % 999,8 hPa 0,0 l/m 0 min 0 min 0 W/m 29,0 km/h (5 Bft) 97,87 %
01.12.2021 04:32 8,6 C 7,8 C 7,2 C 92 % 999,6 hPa 0,0 l/m 0 min 0 min 0 W/m 25,7 km/h (4 Bft) 97,87 %
01.12.2021 04:34 8,5 C 7,8 C 7,2 C 92 % 999,7 hPa 0,0 l/m 0 min 0 min 0 W/m 38,6 km/h (5 Bft) 97,87 %
01.12.2021 04:36 8,5 C 7,8 C 7,2 C 92 % 999,7 hPa 0,0 l/m 0 min 0 min 0 W/m 38,6 km/h (5 Bft) 93,62 %
01.12.2021 04:38 8,5 C 7,8 C 7,2 C 92 % 999,5 hPa 0,0 l/m 0 min 2 min 0 W/m 29,0 km/h (5 Bft) 91,49 %
01.12.2021 04:40 8,5 C 7,8 C 7,2 C 92 % 999,5 hPa 0,0 l/m 0 min 2 min 0 W/m 38,6 km/h (5 Bft) 95,74 %
01.12.2021 04:42 8,4 C 7,8 C 7,2 C 92 % 999,5 hPa 0,0 l/m 0 min 2 min 0 W/m 32,2 km/h (5 Bft) 100,00 %
01.12.2021 04:44 8,4 C 7,8 C 7,2 C 93 % 999,5 hPa 0,0 l/m 0 min 2 min 0 W/m 29,0 km/h (5 Bft) 97,83 %
01.12.2021 04:46 8,4 C 7,8 C 7,2 C 93 % 999,4 hPa 0,0 l/m 0 min 2 min 0 W/m 48,3 km/h (6 Bft) 95,74 %
01.12.2021 04:48 8,3 C 7,2 C 7,2 C 93 % 999,5 hPa 0,0 l/m 0 min 2 min 0 W/m 29,0 km/h (5 Bft) 95,74 %
01.12.2021 04:50 8,3 C 7,2 C 7,2 C 93 % 999,3 hPa 0,0 l/m 0 min 2 min 0 W/m 29,0 km/h (5 Bft) 97,87 %
01.12.2021 04:52 8,2 C 7,2 C 7,2 C 93 % 999,2 hPa 0,0 l/m 0 min 2 min 0 W/m 25,7 km/h (4 Bft) 97,87 %
01.12.2021 04:54 8,2 C 7,2 C 7,2 C 93 % 999,2 hPa 0,0 l/m 0 min 2 min 0 W/m 35,4 km/h (5 Bft) 95,74 %
01.12.2021 04:56 8,1 C 7,2 C 7,2 C 94 % 999,1 hPa 0,0 l/m 0 min 2 min 0 W/m 25,7 km/h (4 Bft) 97,83 %
01.12.2021 04:58 8,1 C 7,2 C 7,2 C 93 % 999,0 hPa 0,0 l/m 0 min 0 min 0 W/m 41,8 km/h (6 Bft) 100,00 %
01.12.2021 05:00 8,1 C 7,2 C 6,7 C 94 % 999,0 hPa 0,0 l/m 0 min 2 min 0 W/m 25,7 km/h (4 Bft) 100,00 %
01.12.2021 05:02 8,1 C 7,2 C 6,7 C 94 % 999,1 hPa 0,0 l/m 0 min 0 min 0 W/m 35,4 km/h (5 Bft) 100,00 %
01.12.2021 05:04 8,0 C 7,2 C 6,7 C 94 % 998,8 hPa 0,0 l/m 0 min 0 min 0 W/m 29,0 km/h (5 Bft) 97,87 %
01.12.2021 05:06 8,0 C 7,2 C 6,7 C 94 % 998,7 hPa 0,0 l/m 0 min 0 min 0 W/m 32,2 km/h (5 Bft) 100,00 %
01.12.2021 05:08 8,0 C 7,2 C 6,7 C 94 % 998,7 hPa 0,2 l/m 0 min 0 min 0 W/m 41,8 km/h (6 Bft) 100,00 %
01.12.2021 05:10 8,0 C 7,2 C 6,7 C 94 % 998,6 hPa 0,0 l/m 0 min 2 min 0 W/m 32,2 km/h (5 Bft) 97,87 %
01.12.2021 05:12 8,0 C 7,2 C 6,7 C 94 % 998,5 hPa 0,0 l/m 0 min 0 min 0 W/m 38,6 km/h (5 Bft) 97,87 %
01.12.2021 05:14 7,9 C 7,2 C 6,7 C 94 % 998,5 hPa 0,0 l/m 0 min 0 min 0 W/m 25,7 km/h (4 Bft) 97,87 %
01.12.2021 05:16 7,9 C 7,2 C 6,7 C 94 % 998,4 hPa 0,0 l/m 0 min 0 min 0 W/m 29,0 km/h (5 Bft) 95,74 %
01.12.2021 05:18 7,9 C 7,2 C 6,7 C 94 % 998,3 hPa 0,0 l/m 0 min 0 min 0 W/m 32,2 km/h (5 Bft) 97,87 %
01.12.2021 05:20 7,9 C 7,2 C 6,7 C 94 % 998,3 hPa 0,0 l/m 0 min 0 min 0 W/m 41,8 km/h (6 Bft) 97,83 %
01.12.2021 05:22 7,9 C 7,2 C 6,7 C 94 % 998,2 hPa 0,0 l/m 0 min 0 min 0 W/m 32,2 km/h (5 Bft) 97,87 %
01.12.2021 05:24 7,9 C 7,2 C 6,7 C 95 % 998,3 hPa 0,0 l/m 0 min 0 min 0 W/m 51,5 km/h (7 Bft) 95,74 %
01.12.2021 05:26 7,9 C 7,2 C 6,7 C 95 % 998,4 hPa 0,0 l/m 0 min 0 min 0 W/m 45,1 km/h (6 Bft) 95,74 %
01.12.2021 05:28 7,8 C 7,2 C 6,7 C 95 % 998,4 hPa 0,0 l/m 0 min 0 min 0 W/m 35,4 km/h (5 Bft) 97,87 %
01.12.2021 05:30 7,8 C 7,2 C 6,7 C 95 % 998,3 hPa 0,0 l/m 0 min 0 min 0 W/m 35,4 km/h (5 Bft) 97,87 %
01.12.2021 05:32 7,8 C 7,2 C 6,7 C 95 % 998,4 hPa 0,0 l/m 0 min 0 min 0 W/m 35,4 km/h (5 Bft) 97,83 %
01.12.2021 05:34 7,8 C 7,2 C 6,7 C 95 % 998,3 hPa 0,0 l/m 0 min 0 min 0 W/m 29,0 km/h (5 Bft) 97,87 %
01.12.2021 05:36 7,8 C 7,2 C 6,7 C 95 % 998,3 hPa 0,0 l/m 0 min 0 min 0 W/m 38,6 km/h (5 Bft) 97,87 %
01.12.2021 05:38 7,8 C 7,2 C 6,7 C 95 % 998,2 hPa 0,0 l/m 0 min 0 min 0 W/m 35,4 km/h (5 Bft) 97,87 %
01.12.2021 05:40 7,8 C 7,2 C 6,7 C 95 % 998,1 hPa 0,0 l/m 0 min 0 min 0 W/m 41,8 km/h (6 Bft) 97,87 %
01.12.2021 05:42 7,8 C 7,2 C 6,7 C 94 % 998,1 hPa 0,0 l/m 0 min 0 min 0 W/m 32,2 km/h (5 Bft) 97,87 %
01.12.2021 05:44 7,8 C 7,2 C 6,7 C 95 % 998,1 hPa 0,0 l/m 0 min 0 min 0 W/m 41,8 km/h (6 Bft) 97,83 %
01.12.2021 05:46 7,8 C 7,2 C 6,7 C 94 % 998,1 hPa 0,0 l/m 0 min 0 min 0 W/m 29,0 km/h (5 Bft) 100,00 %
01.12.2021 05:48 7,8 C 7,2 C 6,7 C 94 % 997,8 hPa 0,0 l/m 0 min 0 min 0 W/m 25,7 km/h (4 Bft) 97,87 %
01.12.2021 05:50 7,8 C 7,2 C 6,7 C 94 % 998,3 hPa 0,0 l/m 0 min 0 min 0 W/m 48,3 km/h (6 Bft) 97,87 %
01.12.2021 05:52 7,8 C 7,2 C 6,7 C 94 % 997,8 hPa 0,0 l/m 0 min 0 min 0 W/m 35,4 km/h (5 Bft) 95,74 %
01.12.2021 05:54 7,8 C 7,2 C 6,7 C 94 % 997,7 hPa 0,0 l/m 0 min 0 min 0 W/m 29,0 km/h (5 Bft) 97,87 %
01.12.2021 05:56 7,8 C 7,2 C 6,7 C 94 % 997,7 hPa 0,0 l/m 0 min 0 min 0 W/m 41,8 km/h (6 Bft) 100,00 %
01.12.2021 05:58 7,8 C 7,2 C 6,7 C 94 % 997,6 hPa 0,0 l/m 0 min 0 min 0 W/m 35,4 km/h (5 Bft) 100,00 %
01.12.2021 06:00 7,8 C 7,2 C 6,7 C 94 % 997,6 hPa 0,0 l/m 0 min 0 min 0 W/m 25,7 km/h (4 Bft) 100,00 %
01.12.2021 06:02 7,8 C 7,2 C 6,7 C 94 % 997,4 hPa 0,0 l/m 0 min 0 min 0 W/m 29,0 km/h (5 Bft) 97,87 %
01.12.2021 06:04 7,9 C 7,2 C 6,7 C 94 % 997,3 hPa 0,0 l/m 0 min 0 min 0 W/m 41,8 km/h (6 Bft) 100,00 %
01.12.2021 06:08 7,9 C 7,2 C 6,7 C 93 % 997,3 hPa 0,0 l/m 0 min 0 min 0 W/m 41,8 km/h (6 Bft) 96,77 %
01.12.2021 06:10 7,9 C 7,2 C 6,7 C 93 % 997,4 hPa 0,0 l/m 0 min 0 min 0 W/m 32,2 km/h (5 Bft) 93,62 %
01.12.2021 06:12 7,9 C 7,2 C 6,7 C 93 % 997,2 hPa 0,0 l/m 0 min 0 min 0 W/m 32,2 km/h (5 Bft) 97,87 %
01.12.2021 06:14 7,9 C 7,8 C 6,7 C 93 % 997,2 hPa 0,0 l/m 0 min 0 min 0 W/m 38,6 km/h (5 Bft) 97,87 %
01.12.2021 06:16 7,9 C 7,2 C 6,7 C 93 % 997,0 hPa 0,0 l/m 0 min 0 min 0 W/m 25,7 km/h (4 Bft) 95,74 %
01.12.2021 06:18 8,0 C 7,8 C 6,7 C 92 % 996,9 hPa 0,0 l/m 0 min 0 min 0 W/m 41,8 km/h (6 Bft) 95,65 %
01.12.2021 06:20 8,0 C 7,8 C 6,7 C 92 % 996,9 hPa 0,0 l/m 0 min 0 min 0 W/m 41,8 km/h (6 Bft) 95,74 %
01.12.2021 06:22 8,0 C 7,8 C 6,7 C 92 % 996,7 hPa 0,0 l/m 0 min 0 min 0 W/m 35,4 km/h (5 Bft) 91,49 %
01.12.2021 06:24 8,0 C 7,8 C 6,7 C 92 % 996,7 hPa 0,0 l/m 0 min 0 min 0 W/m 35,4 km/h (5 Bft) 95,74 %
01.12.2021 06:26 8,0 C 7,8 C 6,7 C 92 % 996,7 hPa 0,0 l/m 0 min 0 min 0 W/m 41,8 km/h (6 Bft) 93,62 %
01.12.2021 06:28 8,0 C 7,8 C 6,7 C 92 % 996,5 hPa 0,0 l/m 0 min 0 min 0 W/m 48,3 km/h (6 Bft) 95,74 %
01.12.2021 06:30 8,0 C 7,8 C 6,7 C 91 % 996,4 hPa 0,0 l/m 0 min 0 min 0 W/m 35,4 km/h (5 Bft) 95,65 %
01.12.2021 06:32 8,1 C 7,8 C 6,7 C 91 % 996,3 hPa 0,0 l/m 0 min 0 min 0 W/m 51,5 km/h (7 Bft) 93,62 %
01.12.2021 06:34 8,1 C 7,8 C 6,7 C 91 % 996,4 hPa 0,0 l/m 0 min 0 min 0 W/m 35,4 km/h (5 Bft) 95,74 %
01.12.2021 06:36 8,1 C 7,8 C 6,7 C 91 % 996,1 hPa 0,0 l/m 0 min 0 min 0 W/m 38,6 km/h (5 Bft) 91,49 %
01.12.2021 06:38 8,1 C 7,8 C 6,7 C 91 % 996,0 hPa 0,0 l/m 0 min 0 min 0 W/m 32,2 km/h (5 Bft) 91,49 %
01.12.2021 06:40 8,1 C 7,8 C 6,7 C 91 % 995,9 hPa 0,0 l/m 0 min 0 min 0 W/m 25,7 km/h (4 Bft) 97,87 %
01.12.2021 06:42 8,1 C 7,8 C 6,7 C 91 % 996,2 hPa 0,0 l/m 0 min 0 min 0 W/m 22,5 km/h (4 Bft) 95,65 %
01.12.2021 06:44 8,1 C 7,8 C 6,7 C 91 % 996,1 hPa 0,0 l/m 0 min 0 min 0 W/m 25,7 km/h (4 Bft) 93,62 %
01.12.2021 06:46 8,1 C 7,8 C 6,7 C 91 % 996,0 hPa 0,0 l/m 0 min 0 min 0 W/m 41,8 km/h (6 Bft) 95,74 %
01.12.2021 06:48 8,1 C 7,8 C 6,7 C 91 % 996,1 hPa 0,0 l/m 0 min 0 min 0 W/m 38,6 km/h (5 Bft) 95,74 %
01.12.2021 06:50 8,1 C 7,8 C 6,7 C 90 % 996,0 hPa 0,0 l/m 0 min 0 min 0 W/m 41,8 km/h (6 Bft) 95,74 %
01.12.2021 06:52 8,1 C 7,8 C 6,7 C 90 % 996,0 hPa 0,0 l/m 0 min 0 min 0 W/m 48,3 km/h (6 Bft) 97,87 %
01.12.2021 06:54 8,1 C 7,8 C 6,7 C 90 % 995,9 hPa 0,0 l/m 0 min 0 min 0 W/m 35,4 km/h (5 Bft) 97,83 %
01.12.2021 06:56 8,1 C 7,8 C 6,7 C 90 % 995,8 hPa 0,0 l/m 0 min 0 min 0 W/m 35,4 km/h (5 Bft) 95,74 %
01.12.2021 06:58 8,1 C 7,8 C 6,7 C 90 % 995,9 hPa 0,0 l/m 0 min 0 min 0 W/m 32,2 km/h (5 Bft) 97,87 %
01.12.2021 07:00 8,2 C 7,8 C 6,7 C 90 % 995,9 hPa 0,0 l/m 0 min 0 min 0 W/m 29,0 km/h (5 Bft) 97,87 %
01.12.2021 07:02 8,2 C 7,8 C 6,7 C 90 % 995,6 hPa 0,0 l/m 0 min 0 min 0 W/m 25,7 km/h (4 Bft) 97,87 %
01.12.2021 07:04 8,2 C 7,8 C 6,7 C 90 % 995,5 hPa 0,0 l/m 0 min 0 min 0 W/m 38,6 km/h (5 Bft) 100,00 %
01.12.2021 07:06 8,2 C 7,8 C 6,7 C 90 % 995,6 hPa 0,0 l/m 0 min 0 min 0 W/m 38,6 km/h (5 Bft) 97,83 %
01.12.2021 07:08 8,2 C 7,8 C 6,7 C 90 % 995,5 hPa 0,0 l/m 0 min 0 min 0 W/m 41,8 km/h (6 Bft) 100,00 %
01.12.2021 07:10 8,3 C 7,8 C 6,7 C 90 % 995,6 hPa 0,0 l/m 0 min 0 min 0 W/m 29,0 km/h (5 Bft) 100,00 %
01.12.2021 07:12 8,3 C 7,8 C 6,7 C 90 % 995,4 hPa 0,0 l/m 0 min 0 min 0 W/m 35,4 km/h (5 Bft) 97,87 %
01.12.2021 07:14 8,3 C 7,8 C 6,7 C 90 % 995,4 hPa 0,0 l/m 0 min 0 min 0 W/m 35,4 km/h (5 Bft) 100,00 %
01.12.2021 07:16 8,3 C 7,8 C 6,7 C 90 % 995,3 hPa 0,0 l/m 0 min 0 min 0 W/m 35,4 km/h (5 Bft) 100,00 %
01.12.2021 07:18 8,3 C 7,8 C 6,7 C 90 % 995,3 hPa 0,0 l/m 0 min 0 min 0 W/m 35,4 km/h (5 Bft) 100,00 %
01.12.2021 07:20 8,3 C 7,8 C 6,7 C 90 % 995,2 hPa 0,0 l/m 0 min 0 min 0 W/m 32,2 km/h (5 Bft) 100,00 %
01.12.2021 07:22 8,3 C 7,8 C 6,7 C 90 % 995,2 hPa 0,0 l/m 0 min 0 min 0 W/m 38,6 km/h (5 Bft) 80,85 %
01.12.2021 07:24 8,3 C 7,8 C 7,2 C 89 % 995,2 hPa 0,0 l/m 0 min 0 min 0 W/m 35,4 km/h (5 Bft) 71,43 %
01.12.2021 07:26 8,4 C 7,8 C 7,2 C 89 % 995,2 hPa 0,0 l/m 0 min 0 min 0 W/m 57,9 km/h (7 Bft) 100,00 %
01.12.2021 07:28 8,4 C 7,8 C 7,2 C 89 % 995,1 hPa 0,0 l/m 0 min 0 min 0 W/m 51,5 km/h (7 Bft) 100,00 %
01.12.2021 07:30 8,4 C 7,8 C 7,2 C 89 % 995,1 hPa 0,0 l/m 0 min 0 min 0 W/m 45,1 km/h (6 Bft) 100,00 %
01.12.2021 07:32 8,4 C 7,8 C 6,7 C 89 % 995,0 hPa 0,0 l/m 0 min 0 min 0 W/m 29,0 km/h (5 Bft) 97,87 %
01.12.2021 07:34 8,4 C 7,8 C 6,7 C 89 % 995,0 hPa 0,0 l/m 0 min 0 min 0 W/m 32,2 km/h (5 Bft) 100,00 %
01.12.2021 07:36 8,4 C 7,8 C 6,7 C 89 % 995,0 hPa 0,0 l/m 0 min 0 min 0 W/m 38,6 km/h (5 Bft) 97,87 %
01.12.2021 07:38 8,4 C 7,8 C 6,7 C 89 % 995,0 hPa 0,0 l/m 0 min 0 min 0 W/m 38,6 km/h (5 Bft) 100,00 %
01.12.2021 07:40 8,4 C 7,8 C 6,7 C 90 % 994,9 hPa 0,0 l/m 0 min 2 min 0 W/m 41,8 km/h (6 Bft) 97,87 %
01.12.2021 07:42 8,4 C 7,8 C 6,7 C 90 % 994,8 hPa 0,0 l/m 0 min 0 min 0 W/m 32,2 km/h (5 Bft) 97,83 %
01.12.2021 07:44 8,3 C 7,8 C 6,7 C 90 % 994,8 hPa 0,0 l/m 0 min 0 min 0 W/m 25,7 km/h (4 Bft) 97,87 %
01.12.2021 07:46 8,3 C 7,8 C 6,7 C 90 % 994,8 hPa 0,0 l/m 0 min 0 min 0 W/m 22,5 km/h (4 Bft) 97,87 %
01.12.2021 07:48 8,3 C 7,8 C 6,7 C 90 % 994,7 hPa 0,0 l/m 0 min 0 min 0 W/m 25,7 km/h (4 Bft) 97,87 %
01.12.2021 07:50 8,3 C 7,8 C 6,7 C 90 % 994,7 hPa 0,0 l/m 0 min 0 min 0 W/m 38,6 km/h (5 Bft) 97,87 %
01.12.2021 07:52 8,3 C 7,8 C 6,7 C 90 % 994,6 hPa 0,0 l/m 0 min 0 min 0 W/m 35,4 km/h (5 Bft) 97,87 %
01.12.2021 07:54 8,3 C 7,8 C 6,7 C 90 % 994,6 hPa 0,0 l/m 0 min 0 min 0 W/m 41,8 km/h (6 Bft) 97,83 %
01.12.2021 07:56 8,3 C 7,8 C 6,7 C 90 % 994,6 hPa 0,0 l/m 0 min 0 min 0 W/m 41,8 km/h (6 Bft) 97,87 %
01.12.2021 07:58 8,3 C 7,8 C 6,7 C 90 % 994,5 hPa 0,0 l/m 0 min 0 min 0 W/m 45,1 km/h (6 Bft) 97,87 %
01.12.2021 08:00 8,3 C 7,8 C 6,7 C 90 % 994,5 hPa 0,0 l/m 0 min 0 min 0 W/m 45,1 km/h (6 Bft) 97,87 %
01.12.2021 08:02 8,4 C 7,8 C 6,7 C 90 % 994,5 hPa 0,0 l/m 0 min 0 min 0 W/m 51,5 km/h (7 Bft) 95,83 %
01.12.2021 08:04 8,4 C 7,8 C 6,7 C 90 % 994,4 hPa 0,0 l/m 0 min 0 min 0 W/m 48,3 km/h (6 Bft) 97,87 %
01.12.2021 08:06 8,4 C 7,8 C 6,7 C 90 % 994,4 hPa 0,0 l/m 0 min 0 min 0 W/m 32,2 km/h (5 Bft) 97,83 %
01.12.2021 08:08 8,4 C 7,8 C 6,7 C 90 % 994,3 hPa 0,0 l/m 0 min 0 min 0 W/m 38,6 km/h (5 Bft) 97,87 %
01.12.2021 08:10 8,4 C 7,8 C 6,7 C 90 % 994,3 hPa 0,0 l/m 0 min 0 min 0 W/m 48,3 km/h (6 Bft) 95,74 %
01.12.2021 08:12 8,4 C 7,8 C 6,7 C 90 % 994,1 hPa 0,0 l/m 0 min 0 min 0 W/m 32,2 km/h (5 Bft) 95,74 %
01.12.2021 08:14 8,4 C 7,8 C 6,7 C 90 % 994,2 hPa 0,0 l/m 0 min 0 min 0 W/m 51,5 km/h (7 Bft) 97,87 %
01.12.2021 08:16 8,5 C 7,8 C 6,7 C 90 % 994,1 hPa 0,0 l/m 0 min 0 min 0 W/m 45,1 km/h (6 Bft) 97,83 %
01.12.2021 08:18 8,5 C 7,8 C 6,7 C 90 % 994,1 hPa 0,0 l/m 0 min 0 min 0 W/m 38,6 km/h (5 Bft) 93,62 %
01.12.2021 08:20 8,5 C 7,8 C 6,7 C 90 % 994,1 hPa 0,0 l/m 0 min 0 min 0 W/m 48,3 km/h (6 Bft) 95,74 %
01.12.2021 08:22 8,5 C 7,8 C 7,2 C 90 % 994,0 hPa 0,0 l/m 0 min 0 min 0 W/m 74,0 km/h (8 Bft) 95,74 %
01.12.2021 08:24 8,5 C 7,8 C 7,2 C 90 % 994,1 hPa 0,0 l/m 0 min 0 min 0 W/m 54,7 km/h (7 Bft) 95,74 %
01.12.2021 08:26 8,5 C 7,8 C 6,7 C 90 % 994,0 hPa 0,0 l/m 0 min 0 min 0 W/m 48,3 km/h (6 Bft) 95,74 %
01.12.2021 08:28 8,5 C 7,8 C 6,7 C 90 % 994,0 hPa 0,0 l/m 0 min 0 min 0 W/m 29,0 km/h (5 Bft) 95,65 %
01.12.2021 08:30 8,5 C 7,8 C 6,7 C 90 % 993,9 hPa 0,0 l/m 0 min 0 min 0 W/m 41,8 km/h (6 Bft) 97,87 %
01.12.2021 08:32 8,5 C 7,8 C 6,7 C 90 % 993,9 hPa 0,0 l/m 0 min 0 min 0 W/m 29,0 km/h (5 Bft) 97,92 %
01.12.2021 08:34 8,5 C 7,8 C 6,7 C 90 % 993,8 hPa 0,0 l/m 0 min 0 min 0 W/m 32,2 km/h (5 Bft) 97,87 %
01.12.2021 08:36 8,5 C 7,8 C 6,7 C 90 % 993,8 hPa 0,0 l/m 0 min 0 min 0 W/m 41,8 km/h (6 Bft) 97,87 %
01.12.2021 08:38 8,5 C 7,8 C 7,2 C 90 % 993,8 hPa 0,0 l/m 0 min 0 min 0 W/m 48,3 km/h (6 Bft) 97,87 %
01.12.2021 08:40 8,5 C 7,8 C 7,2 C 90 % 993,8 hPa 0,0 l/m 0 min 0 min 0 W/m 41,8 km/h (6 Bft) 97,83 %
01.12.2021 08:42 8,5 C 7,8 C 7,2 C 90 % 993,8 hPa 0,0 l/m 0 min 0 min 0 W/m 48,3 km/h (6 Bft) 95,74 %
01.12.2021 08:44 8,5 C 7,8 C 7,2 C 90 % 993,7 hPa 0,0 l/m 0 min 0 min 4 W/m 35,4 km/h (5 Bft) 97,87 %
01.12.2021 08:46 8,5 C 7,8 C 6,7 C 90 % 993,9 hPa 0,0 l/m 0 min 0 min 5 W/m 32,2 km/h (5 Bft) 95,74 %
01.12.2021 08:48 8,5 C 7,8 C 6,7 C 90 % 993,8 hPa 0,0 l/m 0 min 0 min 5 W/m 35,4 km/h (5 Bft) 97,87 %
01.12.2021 08:50 8,5 C 7,8 C 6,7 C 90 % 993,8 hPa 0,0 l/m 0 min 0 min 5 W/m 45,1 km/h (6 Bft) 100,00 %
01.12.2021 08:52 8,5 C 7,8 C 6,7 C 90 % 993,8 hPa 0,0 l/m 0 min 2 min 7 W/m 38,6 km/h (5 Bft) 100,00 %
01.12.2021 08:54 8,5 C 7,8 C 6,7 C 90 % 993,7 hPa 0,0 l/m 0 min 2 min 7 W/m 35,4 km/h (5 Bft) 100,00 %
01.12.2021 08:56 8,4 C 7,8 C 6,7 C 91 % 993,7 hPa 0,0 l/m 0 min 0 min 5 W/m 25,7 km/h (4 Bft) 97,87 %
01.12.2021 08:58 8,4 C 7,8 C 6,7 C 91 % 993,7 hPa 0,0 l/m 0 min 0 min 7 W/m 25,7 km/h (4 Bft) 100,00 %
01.12.2021 09:00 8,4 C 7,8 C 6,7 C 91 % 993,7 hPa 0,0 l/m 0 min 0 min 10 W/m 48,3 km/h (6 Bft) 100,00 %
01.12.2021 09:02 8,4 C 7,8 C 6,7 C 91 % 993,7 hPa 0,0 l/m 0 min 0 min 12 W/m 41,8 km/h (6 Bft) 100,00 %
01.12.2021 09:04 8,4 C 7,8 C 6,7 C 91 % 993,6 hPa 0,0 l/m 0 min 0 min 11 W/m 51,5 km/h (7 Bft) 100,00 %
01.12.2021 09:06 8,4 C 7,8 C 6,7 C 91 % 993,7 hPa 0,0 l/m 0 min 0 min 10 W/m 45,1 km/h (6 Bft) 97,87 %
01.12.2021 09:08 8,4 C 7,8 C 6,7 C 91 % 993,6 hPa 0,0 l/m 0 min 0 min 9 W/m 32,2 km/h (5 Bft) 97,87 %
01.12.2021 09:10 8,4 C 7,8 C 6,7 C 91 % 993,5 hPa 0,0 l/m 0 min 0 min 9 W/m 45,1 km/h (6 Bft) 97,87 %
01.12.2021 09:12 8,4 C 7,8 C 6,7 C 91 % 993,5 hPa 0,0 l/m 0 min 0 min 11 W/m 35,4 km/h (5 Bft) 97,96 %
01.12.2021 09:14 8,4 C 7,8 C 6,7 C 91 % 993,4 hPa 0,0 l/m 0 min 0 min 14 W/m 35,4 km/h (5 Bft) 97,83 %
01.12.2021 09:16 8,4 C 7,8 C 6,7 C 92 % 993,3 hPa 0,0 l/m 0 min 0 min 10 W/m 61,2 km/h (7 Bft) 97,87 %
01.12.2021 09:18 8,4 C 7,8 C 6,7 C 92 % 993,4 hPa 0,0 l/m 0 min 0 min 10 W/m 54,7 km/h (7 Bft) 95,74 %
01.12.2021 09:20 8,4 C 7,8 C 6,7 C 92 % 993,4 hPa 0,0 l/m 0 min 0 min 10 W/m 38,6 km/h (5 Bft) 97,87 %
01.12.2021 09:22 8,4 C 7,8 C 6,7 C 92 % 993,3 hPa 0,0 l/m 0 min 0 min 11 W/m 29,0 km/h (5 Bft) 97,87 %
01.12.2021 09:24 8,4 C 7,8 C 6,7 C 92 % 993,2 hPa 0,0 l/m 0 min 0 min 20 W/m 51,5 km/h (7 Bft) 97,87 %
01.12.2021 09:26 8,4 C 7,8 C 6,7 C 92 % 993,3 hPa 0,0 l/m 0 min 0 min 28 W/m 29,0 km/h (5 Bft) 95,65 %
01.12.2021 09:28 8,4 C 7,8 C 6,7 C 92 % 993,2 hPa 0,0 l/m 0 min 0 min 24 W/m 35,4 km/h (5 Bft) 95,74 %
01.12.2021 09:30 8,4 C 7,8 C 6,7 C 92 % 993,5 hPa 0,0 l/m 0 min 0 min 28 W/m 38,6 km/h (5 Bft) 95,74 %
01.12.2021 09:32 8,4 C 7,8 C 6,7 C 92 % 993,3 hPa 0,0 l/m 0 min 0 min 24 W/m 48,3 km/h (6 Bft) 97,87 %
01.12.2021 09:34 8,4 C 7,8 C 6,7 C 92 % 993,2 hPa 0,0 l/m 0 min 0 min 28 W/m 48,3 km/h (6 Bft) 95,74 %
01.12.2021 09:36 8,4 C 7,8 C 6,7 C 92 % 993,1 hPa 0,0 l/m 0 min 0 min 37 W/m 41,8 km/h (6 Bft) 95,74 %
01.12.2021 09:38 8,4 C 7,8 C 6,7 C 92 % 993,2 hPa 0,0 l/m 0 min 0 min 31 W/m 41,8 km/h (6 Bft) 97,83 %
01.12.2021 09:40 8,4 C 7,8 C 6,7 C 92 % 993,1 hPa 0,0 l/m 0 min 0 min 32 W/m 35,4 km/h (5 Bft) 97,87 %
01.12.2021 09:42 8,4 C 7,8 C 6,7 C 92 % 993,1 hPa 0,0 l/m 0 min 0 min 30 W/m 48,3 km/h (6 Bft) 97,87 %
01.12.2021 09:44 8,4 C 7,8 C 6,7 C 92 % 993,1 hPa 0,0 l/m 0 min 0 min 27 W/m 41,8 km/h (6 Bft) 97,87 %
01.12.2021 09:46 8,4 C 7,8 C 6,7 C 92 % 993,0 hPa 0,0 l/m 0 min 0 min 26 W/m 38,6 km/h (5 Bft) 97,87 %
01.12.2021 09:48 8,5 C 7,8 C 6,7 C 92 % 993,1 hPa 0,0 l/m 0 min 0 min 30 W/m 54,7 km/h (7 Bft) 97,87 %
01.12.2021 09:50 8,5 C 7,8 C 6,7 C 92 % 993,0 hPa 0,0 l/m 0 min 2 min 32 W/m 51,5 km/h (7 Bft) 97,83 %
01.12.2021 09:52 8,5 C 7,8 C 6,7 C 92 % 993,0 hPa 0,0 l/m 0 min 2 min 28 W/m 35,4 km/h (5 Bft) 97,87 %
01.12.2021 09:54 8,5 C 7,8 C 6,7 C 92 % 992,9 hPa 0,0 l/m 0 min 2 min 26 W/m 38,6 km/h (5 Bft) 97,87 %
01.12.2021 09:56 8,5 C 8,3 C 6,7 C 92 % 992,9 hPa 0,0 l/m 0 min 2 min 34 W/m 51,5 km/h (7 Bft) 100,00 %
01.12.2021 09:58 8,5 C 8,3 C 6,7 C 92 % 992,9 hPa 0,0 l/m 0 min 2 min 28 W/m 32,2 km/h (5 Bft) 97,87 %
01.12.2021 10:00 8,6 C 8,3 C 6,7 C 92 % 992,9 hPa 0,0 l/m 0 min 2 min 24 W/m 41,8 km/h (6 Bft) 100,00 %
01.12.2021 10:02 8,6 C 8,3 C 6,7 C 92 % 992,9 hPa 0,0 l/m 0 min 2 min 18 W/m 32,2 km/h (5 Bft) 95,65 %
01.12.2021 10:04 8,6 C 7,8 C 6,7 C 92 % 992,8 hPa 0,0 l/m 0 min 2 min 19 W/m 35,4 km/h (5 Bft) 100,00 %
01.12.2021 10:06 8,6 C 7,8 C 6,7 C 92 % 992,8 hPa 0,0 l/m 0 min 2 min 21 W/m 29,0 km/h (5 Bft) 100,00 %
01.12.2021 10:08 8,6 C 7,8 C 6,7 C 92 % 992,8 hPa 0,0 l/m 0 min 2 min 25 W/m 38,6 km/h (5 Bft) 95,74 %
01.12.2021 10:10 8,6 C 7,8 C 6,7 C 92 % 992,9 hPa 0,0 l/m 0 min 2 min 26 W/m 32,2 km/h (5 Bft) 97,87 %
01.12.2021 10:12 8,6 C 7,8 C 6,7 C 92 % 993,0 hPa 0,0 l/m 0 min 2 min 24 W/m 32,2 km/h (5 Bft) 95,74 %
01.12.2021 10:14 8,6 C 7,8 C 6,7 C 92 % 992,9 hPa 0,0 l/m 0 min 2 min 27 W/m 35,4 km/h (5 Bft) 100,00 %
01.12.2021 10:16 8,6 C 7,8 C 6,7 C 92 % 992,9 hPa 0,0 l/m 0 min 2 min 23 W/m 22,5 km/h (4 Bft) 97,87 %
01.12.2021 10:18 8,6 C 7,8 C 6,7 C 92 % 992,8 hPa 0,0 l/m 0 min 2 min 23 W/m 32,2 km/h (5 Bft) 93,62 %
01.12.2021 10:20 8,5 C 7,8 C 6,7 C 92 % 992,9 hPa 0,0 l/m 0 min 2 min 31 W/m 38,6 km/h (5 Bft) 95,74 %
01.12.2021 10:22 8,5 C 7,8 C 6,7 C 92 % 992,7 hPa 0,0 l/m 0 min 2 min 26 W/m 48,3 km/h (6 Bft) 95,74 %
01.12.2021 10:24 8,5 C 7,8 C 6,7 C 92 % 992,7 hPa 0,0 l/m 0 min 2 min 26 W/m 35,4 km/h (5 Bft) 100,00 %
01.12.2021 10:26 8,5 C 7,8 C 6,7 C 92 % 992,7 hPa 0,0 l/m 0 min 2 min 24 W/m 38,6 km/h (5 Bft) 95,65 %
01.12.2021 10:28 8,5 C 7,8 C 6,7 C 92 % 992,6 hPa 0,0 l/m 0 min 2 min 24 W/m 41,8 km/h (6 Bft) 93,62 %
01.12.2021 10:30 8,5 C 7,8 C 6,7 C 93 % 992,7 hPa 0,0 l/m 0 min 2 min 32 W/m 32,2 km/h (5 Bft) 95,74 %
01.12.2021 10:32 8,5 C 7,8 C 6,7 C 93 % 992,7 hPa 0,0 l/m 0 min 2 min 31 W/m 29,0 km/h (5 Bft) 95,74 %
01.12.2021 10:34 8,5 C 7,8 C 6,7 C 93 % 992,5 hPa 0,0 l/m 0 min 2 min 42 W/m 22,5 km/h (4 Bft) 95,74 %
01.12.2021 10:36 8,4 C 7,8 C 6,7 C 93 % 992,5 hPa 0,0 l/m 0 min 2 min 28 W/m 25,7 km/h (4 Bft) 95,74 %
01.12.2021 10:38 8,4 C 7,8 C 6,7 C 93 % 992,5 hPa 0,0 l/m 0 min 2 min 25 W/m 32,2 km/h (5 Bft) 95,65 %
01.12.2021 10:40 8,5 C 7,8 C 6,7 C 93 % 992,7 hPa 0,0 l/m 0 min 2 min 32 W/m 45,1 km/h (6 Bft) 95,74 %
01.12.2021 10:42 8,5 C 8,3 C 6,7 C 93 % 992,4 hPa 0,0 l/m 0 min 2 min 42 W/m 29,0 km/h (5 Bft) 93,62 %
01.12.2021 10:44 8,5 C 8,3 C 6,7 C 93 % 992,4 hPa 0,0 l/m 0 min 2 min 72 W/m 48,3 km/h (6 Bft) 95,74 %
01.12.2021 10:46 8,5 C 8,3 C 6,7 C 93 % 992,7 hPa 0,0 l/m 0 min 0 min 71 W/m 41,8 km/h (6 Bft) 91,49 %
01.12.2021 10:48 8,6 C 8,3 C 6,7 C 93 % 992,4 hPa 0,0 l/m 0 min 2 min 49 W/m 45,1 km/h (6 Bft) 97,87 %
01.12.2021 10:50 8,6 C 8,3 C 6,7 C 93 % 992,4 hPa 0,0 l/m 0 min 2 min 26 W/m 32,2 km/h (5 Bft) 97,83 %
01.12.2021 10:52 8,6 C 8,3 C 6,7 C 93 % 992,4 hPa 0,0 l/m 0 min 2 min 32 W/m 35,4 km/h (5 Bft) 95,74 %
01.12.2021 10:54 8,6 C 8,3 C 6,7 C 93 % 992,4 hPa 0,0 l/m 0 min 0 min 46 W/m 22,5 km/h (4 Bft) 95,74 %
01.12.2021 10:56 8,6 C 8,3 C 6,7 C 93 % 992,4 hPa 0,0 l/m 0 min 2 min 78 W/m 25,7 km/h (4 Bft) 97,87 %
01.12.2021 10:58 8,6 C 8,3 C 6,7 C 93 % 992,3 hPa 0,0 l/m 0 min 2 min 85 W/m 38,6 km/h (5 Bft) 97,87 %
01.12.2021 11:00 8,6 C 8,3 C 6,7 C 93 % 992,3 hPa 0,0 l/m 0 min 2 min 74 W/m 38,6 km/h (5 Bft) 97,87 %
01.12.2021 11:02 8,6 C 8,3 C 6,7 C 93 % 992,2 hPa 0,0 l/m 0 min 2 min 59 W/m 41,8 km/h (6 Bft) 97,83 %
01.12.2021 11:04 8,6 C 8,3 C 6,7 C 93 % 992,1 hPa 0,0 l/m 0 min 2 min 51 W/m 41,8 km/h (6 Bft) 97,92 %
01.12.2021 11:06 8,6 C 8,3 C 6,7 C 93 % 992,2 hPa 0,0 l/m 0 min 2 min 63 W/m 29,0 km/h (5 Bft) 97,87 %
01.12.2021 11:08 8,6 C 8,3 C 7,2 C 93 % 992,2 hPa 0,0 l/m 0 min 2 min 104 W/m 22,5 km/h (4 Bft) 97,87 %
01.12.2021 11:10 8,6 C 8,3 C 7,2 C 94 % 992,1 hPa 0,0 l/m 0 min 2 min 101 W/m 41,8 km/h (6 Bft) 97,87 %
01.12.2021 11:12 8,7 C 8,3 C 7,2 C 94 % 992,1 hPa 0,0 l/m 0 min 2 min 60 W/m 48,3 km/h (6 Bft) 97,87 %
01.12.2021 11:14 8,7 C 8,3 C 7,2 C 94 % 992,1 hPa 0,0 l/m 0 min 2 min 78 W/m 35,4 km/h (5 Bft) 100,00 %
01.12.2021 11:16 8,7 C 8,3 C 7,2 C 94 % 992,0 hPa 0,0 l/m 0 min 0 min 91 W/m 25,7 km/h (4 Bft) 97,87 %
01.12.2021 11:18 8,8 C 8,3 C 7,2 C 93 % 992,0 hPa 0,0 l/m 0 min 2 min 112 W/m 45,1 km/h (6 Bft) 100,00 %
01.12.2021 11:20 8,8 C 8,3 C 7,2 C 93 % 992,1 hPa 0,0 l/m 0 min 2 min 91 W/m 29,0 km/h (5 Bft) 100,00 %
01.12.2021 11:22 8,8 C 8,3 C 7,2 C 94 % 992,1 hPa 0,0 l/m 0 min 2 min 71 W/m 19,3 km/h (3 Bft) 100,00 %
01.12.2021 11:24 8,8 C 8,3 C 7,2 C 94 % 992,0 hPa 0,0 l/m 0 min 2 min 56 W/m 19,3 km/h (3 Bft) 100,00 %
01.12.2021 11:26 8,8 C 8,3 C 7,2 C 94 % 992,0 hPa 0,0 l/m 0 min 2 min 75 W/m 45,1 km/h (6 Bft) 100,00 %
01.12.2021 11:28 8,8 C 8,3 C 7,2 C 94 % 992,0 hPa 0,0 l/m 0 min 2 min 83 W/m 32,2 km/h (5 Bft) 100,00 %
01.12.2021 11:30 8,8 C 8,3 C 7,2 C 94 % 992,0 hPa 0,0 l/m 0 min 2 min 69 W/m 38,6 km/h (5 Bft) 100,00 %
01.12.2021 11:32 8,8 C 8,3 C 6,7 C 94 % 991,9 hPa 0,0 l/m 0 min 2 min 69 W/m 41,8 km/h (6 Bft) 100,00 %
01.12.2021 11:34 8,7 C 8,3 C 6,7 C 94 % 991,9 hPa 0,0 l/m 0 min 2 min 77 W/m 29,0 km/h (5 Bft) 97,87 %
01.12.2021 11:36 8,8 C 8,3 C 6,7 C 94 % 991,9 hPa 0,0 l/m 0 min 2 min 91 W/m 22,5 km/h (4 Bft) 100,00 %
01.12.2021 11:38 8,8 C 8,3 C 7,2 C 94 % 991,8 hPa 0,0 l/m 0 min 2 min 107 W/m 16,1 km/h (3 Bft) 100,00 %
01.12.2021 11:40 8,8 C 8,3 C 7,2 C 94 % 991,7 hPa 0,0 l/m 0 min 0 min 97 W/m 29,0 km/h (5 Bft) 97,14 %
01.12.2021 11:42 8,8 C 8,3 C 7,2 C 94 % 991,6 hPa 0,0 l/m 0 min 2 min 91 W/m 29,0 km/h (5 Bft) 97,87 %
01.12.2021 11:44 8,8 C 8,3 C 7,2 C 94 % 991,6 hPa 0,0 l/m 0 min 2 min 106 W/m 29,0 km/h (5 Bft) 100,00 %
01.12.2021 11:46 8,8 C 8,3 C 7,2 C 94 % 991,6 hPa 0,0 l/m 0 min 2 min 69 W/m 25,7 km/h (4 Bft) 100,00 %
01.12.2021 11:48 8,8 C 8,3 C 6,7 C 94 % 991,5 hPa 0,0 l/m 0 min 2 min 45 W/m 29,0 km/h (5 Bft) 100,00 %
01.12.2021 11:50 8,8 C 8,3 C 6,7 C 94 % 991,5 hPa 0,0 l/m 0 min 2 min 41 W/m 16,1 km/h (3 Bft) 97,87 %
01.12.2021 11:52 8,8 C 8,3 C 6,7 C 94 % 991,5 hPa 0,0 l/m 0 min 2 min 33 W/m 22,5 km/h (4 Bft) 100,00 %
01.12.2021 11:54 8,7 C 8,3 C 6,7 C 94 % 991,4 hPa 0,0 l/m 0 min 2 min 47 W/m 25,7 km/h (4 Bft) 100,00 %
01.12.2021 11:56 8,7 C 8,3 C 6,7 C 94 % 991,4 hPa 0,0 l/m 0 min 2 min 57 W/m 19,3 km/h (3 Bft) 100,00 %
01.12.2021 11:58 8,7 C 8,3 C 6,7 C 94 % 991,3 hPa 0,0 l/m 0 min 2 min 51 W/m 22,5 km/h (4 Bft) 97,87 %
01.12.2021 12:00 8,7 C 8,3 C 6,7 C 94 % 991,3 hPa 0,0 l/m 0 min 2 min 42 W/m 29,0 km/h (5 Bft) 97,87 %
01.12.2021 12:02 8,7 C 8,3 C 6,7 C 95 % 991,4 hPa 0,0 l/m 0 min 2 min 56 W/m 22,5 km/h (4 Bft) 97,87 %
01.12.2021 12:04 8,7 C 8,3 C 6,7 C 95 % 991,3 hPa 0,0 l/m 0 min 2 min 77 W/m 22,5 km/h (4 Bft) 95,83 %
01.12.2021 12:08 8,8 C 8,3 C 6,7 C 95 % 991,4 hPa 0,0 l/m 0 min 4 min 85 W/m 32,2 km/h (5 Bft) 97,87 %
01.12.2021 12:10 8,8 C 8,3 C 6,7 C 95 % 991,4 hPa 0,0 l/m 0 min 2 min 52 W/m 19,3 km/h (3 Bft) 93,62 %
01.12.2021 12:12 8,8 C 8,3 C 6,7 C 95 % 991,4 hPa 0,0 l/m 0 min 2 min 54 W/m 16,1 km/h (3 Bft) 95,74 %
01.12.2021 12:14 8,8 C 8,3 C 6,7 C 95 % 991,5 hPa 0,2 l/m 0 min 2 min 37 W/m 12,9 km/h (3 Bft) 95,65 %
01.12.2021 12:16 8,8 C 8,3 C 6,7 C 95 % 991,4 hPa 0,0 l/m 0 min 2 min 29 W/m 19,3 km/h (3 Bft) 91,49 %
01.12.2021 12:18 8,8 C 7,8 C 6,7 C 95 % 991,4 hPa 0,0 l/m 0 min 2 min 36 W/m 19,3 km/h (3 Bft) 95,74 %
01.12.2021 12:20 8,8 C 7,8 C 6,7 C 95 % 991,4 hPa 0,0 l/m 0 min 2 min 37 W/m 16,1 km/h (3 Bft) 95,74 %
01.12.2021 12:22 8,8 C 7,8 C 6,7 C 95 % 991,4 hPa 0,0 l/m 0 min 2 min 34 W/m 22,5 km/h (4 Bft) 95,74 %
01.12.2021 12:24 8,8 C 7,8 C 6,7 C 95 % 991,3 hPa 0,0 l/m 0 min 2 min 36 W/m 16,1 km/h (3 Bft) 93,62 %
01.12.2021 12:26 8,8 C 7,8 C 6,7 C 95 % 991,4 hPa 0,0 l/m 0 min 2 min 40 W/m 25,7 km/h (4 Bft) 95,65 %
01.12.2021 12:28 8,8 C 8,3 C 6,7 C 95 % 991,4 hPa 0,0 l/m 0 min 2 min 45 W/m 25,7 km/h (4 Bft) 93,62 %
01.12.2021 12:30 8,7 C 8,3 C 6,7 C 95 % 991,4 hPa 0,0 l/m 0 min 2 min 45 W/m 22,5 km/h (4 Bft) 95,74 %
01.12.2021 12:32 8,7 C 8,3 C 6,7 C 95 % 991,4 hPa 0,0 l/m 0 min 2 min 47 W/m 16,1 km/h (3 Bft) 93,62 %
01.12.2021 12:34 8,7 C 8,3 C 6,7 C 95 % 991,5 hPa 0,2 l/m 0 min 2 min 43 W/m 12,9 km/h (3 Bft) 95,74 %
01.12.2021 12:36 8,7 C 8,3 C 6,7 C 95 % 991,4 hPa 0,0 l/m 0 min 2 min 34 W/m 19,3 km/h (3 Bft) 95,74 %
01.12.2021 12:38 8,7 C 8,3 C 6,7 C 95 % 991,4 hPa 0,0 l/m 0 min 2 min 54 W/m 19,3 km/h (3 Bft) 93,48 %
01.12.2021 12:40 8,7 C 8,3 C 6,7 C 95 % 991,4 hPa 0,0 l/m 0 min 2 min 62 W/m 16,1 km/h (3 Bft) 93,62 %
01.12.2021 12:42 8,7 C 8,3 C 6,7 C 95 % 991,5 hPa 0,0 l/m 0 min 2 min 59 W/m 16,1 km/h (3 Bft) 95,74 %
01.12.2021 12:44 8,7 C 8,3 C 6,7 C 95 % 991,5 hPa 0,0 l/m 0 min 2 min 56 W/m 22,5 km/h (4 Bft) 95,74 %
01.12.2021 12:46 8,7 C 8,3 C 6,7 C 95 % 991,5 hPa 0,0 l/m 0 min 2 min 41 W/m 19,3 km/h (3 Bft) 95,74 %
01.12.2021 12:48 8,6 C 7,8 C 6,7 C 95 % 991,4 hPa 0,0 l/m 0 min 2 min 39 W/m 32,2 km/h (5 Bft) 100,00 %
01.12.2021 12:50 8,6 C 7,8 C 6,7 C 95 % 991,6 hPa 0,0 l/m 0 min 2 min 51 W/m 19,3 km/h (3 Bft) 97,83 %
01.12.2021 12:52 8,6 C 7,8 C 6,7 C 94 % 991,6 hPa 0,0 l/m 0 min 2 min 58 W/m 19,3 km/h (3 Bft) 100,00 %
01.12.2021 12:54 8,5 C 7,8 C 6,1 C 94 % 991,6 hPa 0,0 l/m 0 min 0 min 36 W/m 29,0 km/h (5 Bft) 97,87 %
01.12.2021 12:56 8,5 C 7,8 C 6,1 C 94 % 991,7 hPa 0,0 l/m 0 min 2 min 46 W/m 29,0 km/h (5 Bft) 100,00 %
01.12.2021 12:58 8,5 C 7,8 C 6,1 C 94 % 991,7 hPa 0,0 l/m 0 min 2 min 55 W/m 25,7 km/h (4 Bft) 100,00 %
01.12.2021 13:00 8,4 C 7,8 C 6,1 C 94 % 991,7 hPa 0,0 l/m 0 min 0 min 45 W/m 22,5 km/h (4 Bft) 100,00 %
01.12.2021 13:02 8,4 C 7,8 C 6,1 C 94 % 991,7 hPa 0,0 l/m 0 min 0 min 46 W/m 22,5 km/h (4 Bft) 100,00 %
01.12.2021 13:04 8,4 C 7,8 C 6,1 C 93 % 991,6 hPa 0,0 l/m 0 min 0 min 55 W/m 25,7 km/h (4 Bft) 97,87 %
01.12.2021 13:06 8,4 C 7,8 C 6,1 C 93 % 991,6 hPa 0,0 l/m 0 min 0 min 52 W/m 35,4 km/h (5 Bft) 100,00 %
01.12.2021 13:08 8,4 C 7,8 C 6,1 C 93 % 991,6 hPa 0,0 l/m 0 min 0 min 43 W/m 22,5 km/h (4 Bft) 100,00 %
01.12.2021 13:10 8,4 C 7,8 C 6,1 C 92 % 991,6 hPa 0,0 l/m 0 min 0 min 49 W/m 25,7 km/h (4 Bft) 100,00 %
01.12.2021 13:12 8,4 C 7,8 C 6,1 C 92 % 991,7 hPa 0,0 l/m 0 min 0 min 46 W/m 19,3 km/h (3 Bft) 97,87 %
01.12.2021 13:14 8,3 C 7,8 C 6,1 C 92 % 991,6 hPa 0,0 l/m 0 min 0 min 54 W/m 22,5 km/h (4 Bft) 95,65 %
01.12.2021 13:16 8,3 C 7,8 C 6,1 C 91 % 991,6 hPa 0,0 l/m 0 min 0 min 83 W/m 29,0 km/h (5 Bft) 93,62 %
01.12.2021 13:18 8,3 C 7,8 C 6,1 C 91 % 991,6 hPa 0,0 l/m 0 min 0 min 117 W/m 29,0 km/h (5 Bft) 97,87 %
01.12.2021 13:20 8,3 C 8,3 C 6,1 C 91 % 991,5 hPa 0,0 l/m 0 min 0 min 142 W/m 16,1 km/h (3 Bft) 97,87 %
01.12.2021 13:22 8,3 C 8,3 C 6,1 C 91 % 991,5 hPa 0,0 l/m 0 min 0 min 141 W/m 32,2 km/h (5 Bft) 97,87 %
01.12.2021 13:24 8,4 C 8,3 C 6,1 C 91 % 991,5 hPa 0,0 l/m 0 min 0 min 133 W/m 19,3 km/h (3 Bft) 97,87 %
01.12.2021 13:26 8,4 C 8,3 C 6,1 C 90 % 991,6 hPa 0,0 l/m 0 min 0 min 122 W/m 19,3 km/h (3 Bft) 97,83 %
01.12.2021 13:28 8,4 C 8,3 C 6,1 C 90 % 991,5 hPa 0,0 l/m 0 min 0 min 117 W/m 12,9 km/h (3 Bft) 97,87 %
01.12.2021 13:30 8,4 C 8,3 C 6,1 C 90 % 991,5 hPa 0,0 l/m 0 min 0 min 113 W/m 16,1 km/h (3 Bft) 97,87 %
01.12.2021 13:32 8,4 C 8,3 C 6,1 C 90 % 991,6 hPa 0,0 l/m 0 min 0 min 106 W/m 25,7 km/h (4 Bft) 97,87 %
01.12.2021 13:34 8,4 C 7,8 C 6,1 C 90 % 991,6 hPa 0,0 l/m 0 min 0 min 98 W/m 19,3 km/h (3 Bft) 95,74 %
01.12.2021 13:36 8,4 C 7,8 C 6,1 C 90 % 991,7 hPa 0,0 l/m 0 min 0 min 92 W/m 16,1 km/h (3 Bft) 97,83 %
01.12.2021 13:38 8,4 C 7,8 C 6,1 C 90 % 991,6 hPa 0,0 l/m 0 min 0 min 77 W/m 25,7 km/h (4 Bft) 95,74 %
01.12.2021 13:40 8,4 C 7,8 C 6,1 C 90 % 991,6 hPa 0,0 l/m 0 min 0 min 90 W/m 16,1 km/h (3 Bft) 55,32 %
01.12.2021 13:42 8,4 C 7,8 C 6,1 C 90 % 991,6 hPa 0,0 l/m 0 min 0 min 90 W/m 19,3 km/h (3 Bft) 95,74 %
01.12.2021 13:44 8,4 C 7,8 C 6,1 C 90 % 991,5 hPa 0,0 l/m 0 min 0 min 95 W/m 22,5 km/h (4 Bft) 97,87 %
01.12.2021 13:46 8,4 C 8,3 C 6,1 C 90 % 991,6 hPa 0,0 l/m 0 min 0 min 104 W/m 32,2 km/h (5 Bft) 95,74 %
01.12.2021 13:48 8,4 C 7,8 C 6,1 C 90 % 991,6 hPa 0,0 l/m 0 min 0 min 111 W/m 38,6 km/h (5 Bft) 97,87 %
01.12.2021 13:50 8,4 C 8,3 C 6,1 C 90 % 991,6 hPa 0,0 l/m 0 min 0 min 113 W/m 32,2 km/h (5 Bft) 97,83 %
01.12.2021 13:52 8,4 C 8,3 C 6,1 C 90 % 991,6 hPa 0,0 l/m 0 min 0 min 120 W/m 25,7 km/h (4 Bft) 97,87 %
01.12.2021 13:54 8,4 C 8,3 C 6,1 C 90 % 991,7 hPa 0,0 l/m 0 min 0 min 129 W/m 19,3 km/h (3 Bft) 100,00 %
01.12.2021 13:56 8,4 C 8,3 C 6,1 C 90 % 991,7 hPa 0,0 l/m 2 min 0 min 141 W/m 25,7 km/h (4 Bft) 100,00 %
01.12.2021 13:58 8,4 C 8,3 C 6,1 C 90 % 991,7 hPa 0,0 l/m 0 min 0 min 132 W/m 16,1 km/h (3 Bft) 97,87 %
01.12.2021 14:00 8,4 C 8,3 C 6,1 C 90 % 991,7 hPa 0,0 l/m 0 min 0 min 108 W/m 25,7 km/h (4 Bft) 100,00 %
01.12.2021 14:02 8,4 C 8,3 C 6,1 C 90 % 991,7 hPa 0,0 l/m 0 min 0 min 90 W/m 16,1 km/h (3 Bft) 100,00 %
01.12.2021 14:04 8,4 C 7,8 C 6,1 C 90 % 991,8 hPa 0,0 l/m 0 min 0 min 74 W/m 12,9 km/h (3 Bft) 100,00 %
01.12.2021 14:06 8,4 C 7,8 C 6,1 C 90 % 991,8 hPa 0,0 l/m 0 min 0 min 53 W/m 12,9 km/h (3 Bft) 100,00 %
01.12.2021 14:08 8,3 C 7,8 C 6,1 C 90 % 991,8 hPa 0,0 l/m 0 min 0 min 39 W/m 19,3 km/h (3 Bft) 95,74 %
01.12.2021 14:10 8,3 C 7,8 C 6,1 C 90 % 991,8 hPa 0,0 l/m 0 min 0 min 46 W/m 19,3 km/h (3 Bft) 97,87 %
01.12.2021 14:12 8,3 C 7,8 C 6,1 C 90 % 991,8 hPa 0,0 l/m 0 min 0 min 54 W/m 19,3 km/h (3 Bft) 97,83 %
01.12.2021 14:14 8,3 C 7,8 C 6,1 C 90 % 991,8 hPa 0,0 l/m 0 min 0 min 48 W/m 25,7 km/h (4 Bft) 95,74 %
01.12.2021 14:16 8,3 C 7,8 C 6,1 C 90 % 991,8 hPa 0,0 l/m 0 min 0 min 46 W/m 19,3 km/h (3 Bft) 97,87 %
01.12.2021 14:18 8,3 C 7,8 C 6,1 C 90 % 991,8 hPa 0,0 l/m 0 min 0 min 42 W/m 19,3 km/h (3 Bft) 95,74 %
01.12.2021 14:20 8,2 C 7,8 C 6,1 C 89 % 991,9 hPa 0,0 l/m 0 min 0 min 39 W/m 19,3 km/h (3 Bft) 97,87 %
01.12.2021 14:22 8,2 C 7,8 C 6,1 C 89 % 991,9 hPa 0,0 l/m 0 min 0 min 44 W/m 19,3 km/h (3 Bft) 97,87 %
01.12.2021 14:24 8,2 C 7,8 C 6,1 C 89 % 991,8 hPa 0,0 l/m 0 min 0 min 58 W/m 19,3 km/h (3 Bft) 97,83 %
01.12.2021 14:26 8,2 C 7,8 C 6,1 C 89 % 991,9 hPa 0,0 l/m 0 min 0 min 71 W/m 19,3 km/h (3 Bft) 97,87 %
01.12.2021 14:28 8,2 C 7,8 C 6,1 C 89 % 991,9 hPa 0,0 l/m 0 min 0 min 69 W/m 16,1 km/h (3 Bft) 97,87 %
01.12.2021 14:30 8,2 C 7,8 C 6,1 C 89 % 991,9 hPa 0,0 l/m 0 min 0 min 58 W/m 9,7 km/h (2 Bft) 100,00 %
01.12.2021 14:32 8,3 C 7,8 C 6,1 C 89 % 991,9 hPa 0,0 l/m 0 min 0 min 52 W/m 22,5 km/h (4 Bft) 100,00 %
01.12.2021 14:34 8,3 C 7,8 C 6,1 C 89 % 991,9 hPa 0,0 l/m 0 min 0 min 48 W/m 22,5 km/h (4 Bft) 100,00 %
01.12.2021 14:36 8,3 C 7,8 C 6,1 C 89 % 992,0 hPa 0,0 l/m 0 min 0 min 48 W/m 25,7 km/h (4 Bft) 100,00 %
01.12.2021 14:38 8,2 C 7,8 C 6,1 C 89 % 991,9 hPa 0,0 l/m 0 min 0 min 53 W/m 22,5 km/h (4 Bft) 97,87 %
01.12.2021 14:40 8,3 C 7,8 C 6,1 C 89 % 991,9 hPa 0,0 l/m 0 min 0 min 53 W/m 16,1 km/h (3 Bft) 100,00 %
01.12.2021 14:42 8,3 C 7,8 C 6,1 C 89 % 991,9 hPa 0,0 l/m 0 min 0 min 52 W/m 25,7 km/h (4 Bft) 96,77 %
01.12.2021 14:44 8,3 C 7,8 C 6,1 C 89 % 991,9 hPa 0,0 l/m 0 min 0 min 53 W/m 29,0 km/h (5 Bft) 100,00 %
01.12.2021 14:46 8,3 C 7,8 C 6,1 C 89 % 991,9 hPa 0,0 l/m 0 min 0 min 48 W/m 22,5 km/h (4 Bft) 97,87 %
01.12.2021 14:48 8,3 C 7,8 C 6,1 C 89 % 991,9 hPa 0,0 l/m 0 min 0 min 45 W/m 12,9 km/h (3 Bft) 97,83 %
01.12.2021 14:50 8,3 C 7,8 C 6,1 C 89 % 991,9 hPa 0,0 l/m 0 min 0 min 51 W/m 16,1 km/h (3 Bft) 100,00 %
01.12.2021 14:52 8,3 C 7,8 C 6,1 C 89 % 991,9 hPa 0,0 l/m 0 min 0 min 54 W/m 19,3 km/h (3 Bft) 97,87 %
01.12.2021 14:54 8,2 C 7,8 C 6,1 C 89 % 992,0 hPa 0,0 l/m 0 min 0 min 49 W/m 22,5 km/h (4 Bft) 97,87 %
01.12.2021 14:56 8,2 C 7,8 C 6,1 C 89 % 992,0 hPa 0,0 l/m 0 min 0 min 41 W/m 25,7 km/h (4 Bft) 100,00 %
01.12.2021 14:58 8,2 C 7,8 C 6,1 C 88 % 992,0 hPa 0,0 l/m 0 min 0 min 39 W/m 12,9 km/h (3 Bft) 100,00 %
01.12.2021 15:00 8,2 C 7,8 C 6,1 C 89 % 992,0 hPa 0,0 l/m 0 min 0 min 39 W/m 22,5 km/h (4 Bft) 100,00 %
01.12.2021 15:02 8,2 C 7,8 C 6,1 C 88 % 992,0 hPa 0,0 l/m 0 min 0 min 46 W/m 12,9 km/h (3 Bft) 97,87 %
01.12.2021 15:04 8,2 C 7,8 C 6,1 C 89 % 992,0 hPa 0,0 l/m 0 min 0 min 56 W/m 16,1 km/h (3 Bft) 100,00 %
01.12.2021 15:06 8,2 C 7,8 C 6,1 C 89 % 992,0 hPa 0,0 l/m 0 min 0 min 55 W/m 19,3 km/h (3 Bft) 95,74 %
01.12.2021 15:08 8,2 C 7,8 C 6,1 C 89 % 992,0 hPa 0,0 l/m 0 min 0 min 43 W/m 12,9 km/h (3 Bft) 97,87 %
01.12.2021 15:10 8,1 C 7,8 C 6,1 C 89 % 992,0 hPa 0,0 l/m 0 min 0 min 37 W/m 19,3 km/h (3 Bft) 97,83 %
01.12.2021 15:12 8,1 C 7,8 C 6,1 C 89 % 992,0 hPa 0,0 l/m 0 min 0 min 33 W/m 16,1 km/h (3 Bft) 97,87 %
01.12.2021 15:14 8,1 C 7,8 C 5,6 C 89 % 992,0 hPa 0,0 l/m 0 min 0 min 32 W/m 22,5 km/h (4 Bft) 95,74 %
01.12.2021 15:16 8,1 C 7,8 C 5,6 C 88 % 992,1 hPa 0,0 l/m 0 min 0 min 34 W/m 22,5 km/h (4 Bft) 97,87 %
01.12.2021 15:18 8,0 C 7,8 C 5,6 C 88 % 992,0 hPa 0,0 l/m 0 min 0 min 41 W/m 19,3 km/h (3 Bft) 97,87 %
01.12.2021 15:20 8,0 C 7,8 C 5,6 C 88 % 992,0 hPa 0,0 l/m 0 min 0 min 44 W/m 16,1 km/h (3 Bft) 97,87 %
01.12.2021 15:22 8,0 C 7,8 C 5,6 C 88 % 991,9 hPa 0,0 l/m 0 min 0 min 41 W/m 19,3 km/h (3 Bft) 97,83 %
01.12.2021 15:24 8,0 C 7,8 C 5,6 C 89 % 992,0 hPa 0,0 l/m 0 min 0 min 45 W/m 19,3 km/h (3 Bft) 93,62 %
01.12.2021 15:26 8,0 C 7,8 C 5,6 C 89 % 992,0 hPa 0,0 l/m 0 min 0 min 55 W/m 22,5 km/h (4 Bft) 95,74 %
01.12.2021 15:28 8,0 C 7,8 C 6,1 C 89 % 991,9 hPa 0,0 l/m 2 min 0 min 66 W/m 22,5 km/h (4 Bft) 97,87 %
01.12.2021 15:30 8,1 C 7,8 C 6,1 C 89 % 992,0 hPa 0,0 l/m 0 min 0 min 60 W/m 25,7 km/h (4 Bft) 95,74 %
01.12.2021 15:32 8,1 C 7,8 C 6,1 C 89 % 992,0 hPa 0,0 l/m 0 min 0 min 58 W/m 19,3 km/h (3 Bft) 97,87 %
01.12.2021 15:34 8,1 C 7,8 C 6,1 C 89 % 992,1 hPa 0,0 l/m 2 min 0 min 59 W/m 16,1 km/h (3 Bft) 97,83 %
01.12.2021 15:36 8,1 C 7,8 C 6,1 C 89 % 992,1 hPa 0,0 l/m 2 min 0 min 55 W/m 19,3 km/h (3 Bft) 97,87 %
01.12.2021 15:38 8,1 C 7,8 C 6,1 C 89 % 992,1 hPa 0,0 l/m 0 min 0 min 51 W/m 12,9 km/h (3 Bft) 97,87 %
01.12.2021 15:40 8,1 C 7,8 C 5,6 C 89 % 992,1 hPa 0,0 l/m 0 min 0 min 42 W/m 25,7 km/h (4 Bft) 95,74 %
01.12.2021 15:42 8,1 C 7,8 C 5,6 C 89 % 992,1 hPa 0,0 l/m 0 min 0 min 25 W/m 22,5 km/h (4 Bft) 95,74 %
01.12.2021 15:44 8,1 C 7,2 C 5,6 C 89 % 992,2 hPa 0,0 l/m 0 min 0 min 18 W/m 16,1 km/h (3 Bft) 97,87 %
01.12.2021 15:46 8,1 C 7,2 C 5,6 C 89 % 992,2 hPa 0,0 l/m 0 min 0 min 16 W/m 16,1 km/h (3 Bft) 95,65 %
01.12.2021 15:48 8,1 C 7,2 C 5,6 C 89 % 992,2 hPa 0,0 l/m 0 min 0 min 20 W/m 22,5 km/h (4 Bft) 95,74 %
01.12.2021 15:50 8,1 C 7,2 C 5,6 C 89 % 992,3 hPa 0,0 l/m 0 min 0 min 22 W/m 22,5 km/h (4 Bft) 93,62 %
01.12.2021 15:52 8,0 C 7,2 C 5,6 C 89 % 992,3 hPa 0,0 l/m 0 min 2 min 28 W/m 19,3 km/h (3 Bft) 93,62 %
01.12.2021 15:54 8,0 C 7,2 C 5,6 C 89 % 992,2 hPa 0,0 l/m 0 min 2 min 26 W/m 16,1 km/h (3 Bft) 95,74 %
01.12.2021 15:56 8,0 C 7,2 C 5,6 C 89 % 992,2 hPa 0,0 l/m 0 min 2 min 19 W/m 12,9 km/h (3 Bft) 95,74 %
01.12.2021 15:58 8,0 C 7,2 C 5,6 C 89 % 992,3 hPa 0,0 l/m 0 min 2 min 15 W/m 19,3 km/h (3 Bft) 95,65 %
01.12.2021 16:00 8,0 C 7,2 C 5,6 C 89 % 992,3 hPa 0,0 l/m 0 min 2 min 12 W/m 19,3 km/h (3 Bft) 95,74 %
01.12.2021 16:02 8,0 C 7,2 C 5,6 C 89 % 992,2 hPa 0,0 l/m 0 min 2 min 12 W/m 19,3 km/h (3 Bft) 97,87 %
01.12.2021 16:04 8,0 C 7,2 C 5,6 C 89 % 992,3 hPa 0,0 l/m 0 min 2 min 12 W/m 19,3 km/h (3 Bft) 95,74 %
01.12.2021 16:06 8,0 C 7,2 C 5,6 C 89 % 992,3 hPa 0,0 l/m 0 min 2 min 11 W/m 16,1 km/h (3 Bft) 95,74 %
01.12.2021 16:08 8,0 C 7,2 C 5,6 C 89 % 992,2 hPa 0,0 l/m 0 min 0 min 11 W/m 25,7 km/h (4 Bft) 95,74 %
01.12.2021 16:10 7,9 C 7,2 C 5,6 C 89 % 992,2 hPa 0,0 l/m 0 min 2 min 11 W/m 19,3 km/h (3 Bft) 93,48 %
01.12.2021 16:12 7,9 C 7,2 C 5,6 C 89 % 992,2 hPa 0,0 l/m 0 min 2 min 11 W/m 29,0 km/h (5 Bft) 95,74 %
01.12.2021 16:14 7,9 C 7,2 C 5,6 C 89 % 992,3 hPa 0,0 l/m 0 min 0 min 10 W/m 16,1 km/h (3 Bft) 93,62 %
01.12.2021 16:16 7,9 C 7,2 C 5,6 C 89 % 992,3 hPa 0,0 l/m 0 min 2 min 8 W/m 19,3 km/h (3 Bft) 95,74 %
01.12.2021 16:18 7,9 C 7,2 C 5,6 C 89 % 992,3 hPa 0,0 l/m 0 min 2 min 7 W/m 25,7 km/h (4 Bft) 95,74 %
01.12.2021 16:20 7,9 C 7,2 C 5,6 C 89 % 992,4 hPa 0,0 l/m 0 min 2 min 7 W/m 25,7 km/h (4 Bft) 95,74 %
01.12.2021 16:22 7,9 C 7,2 C 5,6 C 89 % 992,4 hPa 0,0 l/m 0 min 0 min 7 W/m 16,1 km/h (3 Bft) 93,48 %
01.12.2021 16:24 7,9 C 7,2 C 5,6 C 89 % 992,5 hPa 0,0 l/m 0 min 0 min 5 W/m 19,3 km/h (3 Bft) 95,74 %
01.12.2021 16:26 7,9 C 7,2 C 5,6 C 89 % 992,4 hPa 0,0 l/m 0 min 2 min 5 W/m 29,0 km/h (5 Bft) 95,74 %
01.12.2021 16:28 7,9 C 7,2 C 5,6 C 89 % 992,4 hPa 0,0 l/m 0 min 2 min 0 W/m 22,5 km/h (4 Bft) 95,74 %
01.12.2021 16:30 7,9 C 7,2 C 5,6 C 89 % 992,4 hPa 0,0 l/m 0 min 2 min 0 W/m 19,3 km/h (3 Bft) 93,62 %
01.12.2021 16:32 7,9 C 7,2 C 5,6 C 89 % 992,4 hPa 0,0 l/m 0 min 0 min 0 W/m 16,1 km/h (3 Bft) 97,83 %
01.12.2021 16:34 7,8 C 7,2 C 5,6 C 90 % 992,4 hPa 0,0 l/m 0 min 0 min 0 W/m 19,3 km/h (3 Bft) 97,87 %
01.12.2021 16:36 7,8 C 7,2 C 5,6 C 90 % 992,4 hPa 0,0 l/m 0 min 2 min 0 W/m 25,7 km/h (4 Bft) 100,00 %
01.12.2021 16:38 7,8 C 7,2 C 5,6 C 90 % 992,4 hPa 0,0 l/m 0 min 0 min 0 W/m 25,7 km/h (4 Bft) 100,00 %
01.12.2021 16:40 7,8 C 7,2 C 5,6 C 90 % 992,3 hPa 0,0 l/m 0 min 0 min 0 W/m 19,3 km/h (3 Bft) 97,87 %
01.12.2021 16:42 7,8 C 7,2 C 5,6 C 90 % 992,4 hPa 0,0 l/m 0 min 0 min 0 W/m 35,4 km/h (5 Bft) 53,33 %
01.12.2021 16:44 7,8 C 7,2 C 5,6 C 90 % 992,4 hPa 0,0 l/m 0 min 0 min 0 W/m 32,2 km/h (5 Bft) 97,83 %
01.12.2021 16:46 7,8 C 7,2 C 5,0 C 90 % 992,3 hPa 0,0 l/m 0 min 0 min 0 W/m 35,4 km/h (5 Bft) 100,00 %
01.12.2021 16:48 7,8 C 7,2 C 5,0 C 90 % 992,3 hPa 0,0 l/m 0 min 0 min 0 W/m 29,0 km/h (5 Bft) 100,00 %
01.12.2021 16:50 7,7 C 7,2 C 5,0 C 90 % 992,3 hPa 0,0 l/m 0 min 0 min 0 W/m 16,1 km/h (3 Bft) 100,00 %
01.12.2021 16:52 7,7 C 6,7 C 5,0 C 90 % 992,4 hPa 0,0 l/m 0 min 0 min 0 W/m 16,1 km/h (3 Bft) 100,00 %
01.12.2021 16:54 7,6 C 6,7 C 5,0 C 90 % 992,4 hPa 0,0 l/m 0 min 0 min 0 W/m 19,3 km/h (3 Bft) 100,00 %
01.12.2021 16:56 7,6 C 6,7 C 5,0 C 91 % 992,4 hPa 0,0 l/m 0 min 0 min 0 W/m 25,7 km/h (4 Bft) 100,00 %
01.12.2021 16:58 7,6 C 6,7 C 5,0 C 91 % 992,4 hPa 0,0 l/m 0 min 0 min 0 W/m 12,9 km/h (3 Bft) 100,00 %
01.12.2021 17:00 7,6 C 6,7 C 5,0 C 91 % 992,4 hPa 0,0 l/m 0 min 0 min 0 W/m 19,3 km/h (3 Bft) 100,00 %
01.12.2021 17:02 7,5 C 6,7 C 5,0 C 91 % 992,5 hPa 0,0 l/m 0 min 0 min 0 W/m 19,3 km/h (3 Bft) 97,87 %
01.12.2021 17:04 7,5 C 6,7 C 5,0 C 91 % 992,5 hPa 0,0 l/m 0 min 0 min 0 W/m 22,5 km/h (4 Bft) 100,00 %
01.12.2021 17:06 7,5 C 6,7 C 5,0 C 91 % 992,5 hPa 0,0 l/m 0 min 0 min 0 W/m 16,1 km/h (3 Bft) 97,87 %
01.12.2021 17:08 7,5 C 6,7 C 5,0 C 91 % 992,5 hPa 0,0 l/m 0 min 0 min 0 W/m 16,1 km/h (3 Bft) 100,00 %
01.12.2021 17:10 7,5 C 6,7 C 5,0 C 91 % 992,7 hPa 0,0 l/m 0 min 0 min 0 W/m 19,3 km/h (3 Bft) 100,00 %
01.12.2021 17:12 7,5 C 6,7 C 5,0 C 91 % 992,6 hPa 0,0 l/m 0 min 0 min 0 W/m 22,5 km/h (4 Bft) 100,00 %
01.12.2021 17:14 7,5 C 6,7 C 5,0 C 91 % 992,6 hPa 0,0 l/m 0 min 0 min 0 W/m 25,7 km/h (4 Bft) 100,00 %
01.12.2021 17:16 7,5 C 6,7 C 5,0 C 91 % 992,7 hPa 0,0 l/m 0 min 0 min 0 W/m 16,1 km/h (3 Bft) 97,87 %
01.12.2021 17:18 7,5 C 6,7 C 5,0 C 92 % 992,7 hPa 0,0 l/m 0 min 0 min 0 W/m 19,3 km/h (3 Bft) 100,00 %
01.12.2021 17:20 7,5 C 6,7 C 5,0 C 92 % 992,7 hPa 0,0 l/m 0 min 0 min 0 W/m 22,5 km/h (4 Bft) 97,83 %
01.12.2021 17:22 7,5 C 6,7 C 5,0 C 92 % 992,8 hPa 0,0 l/m 0 min 0 min 0 W/m 16,1 km/h (3 Bft) 100,00 %
01.12.2021 17:24 7,5 C 6,7 C 5,0 C 92 % 992,7 hPa 0,0 l/m 0 min 0 min 0 W/m 16,1 km/h (3 Bft) 97,87 %
01.12.2021 17:26 7,5 C 6,7 C 5,0 C 92 % 992,8 hPa 0,0 l/m 0 min 0 min 0 W/m 12,9 km/h (3 Bft) 100,00 %
01.12.2021 17:28 7,4 C 6,7 C 5,0 C 92 % 992,8 hPa 0,0 l/m 0 min 0 min 0 W/m 29,0 km/h (5 Bft) 100,00 %
01.12.2021 17:30 7,4 C 6,7 C 5,0 C 92 % 992,8 hPa 0,0 l/m 0 min 0 min 0 W/m 25,7 km/h (4 Bft) 100,00 %
01.12.2021 17:32 7,5 C 6,7 C 5,0 C 92 % 992,8 hPa 0,0 l/m 0 min 0 min 0 W/m 19,3 km/h (3 Bft) 97,87 %
01.12.2021 17:34 7,5 C 6,7 C 5,0 C 92 % 992,8 hPa 0,0 l/m 0 min 0 min 0 W/m 19,3 km/h (3 Bft) 100,00 %
01.12.2021 17:36 7,5 C 6,7 C 5,0 C 92 % 992,9 hPa 0,0 l/m 0 min 0 min 0 W/m 16,1 km/h (3 Bft) 100,00 %
01.12.2021 17:38 7,5 C 6,7 C 5,0 C 92 % 992,9 hPa 0,0 l/m 0 min 0 min 0 W/m 12,9 km/h (3 Bft) 100,00 %
01.12.2021 17:40 7,5 C 6,7 C 5,0 C 92 % 993,0 hPa 0,0 l/m 0 min 0 min 0 W/m 16,1 km/h (3 Bft) 100,00 %
01.12.2021 17:42 7,5 C 6,7 C 5,0 C 92 % 993,0 hPa 0,0 l/m 0 min 0 min 0 W/m 19,3 km/h (3 Bft) 100,00 %
01.12.2021 17:44 7,5 C 6,7 C 5,0 C 92 % 992,9 hPa 0,0 l/m 0 min 0 min 0 W/m 19,3 km/h (3 Bft) 100,00 %
01.12.2021 17:46 7,5 C 6,7 C 5,0 C 92 % 993,0 hPa 0,0 l/m 0 min 0 min 0 W/m 16,1 km/h (3 Bft) 100,00 %
01.12.2021 17:48 7,5 C 6,7 C 5,0 C 92 % 993,0 hPa 0,0 l/m 0 min 0 min 0 W/m 19,3 km/h (3 Bft) 100,00 %
01.12.2021 17:50 7,5 C 6,7 C 5,0 C 92 % 993,1 hPa 0,0 l/m 0 min 0 min 0 W/m 29,0 km/h (5 Bft) 100,00 %
01.12.2021 17:52 7,5 C 7,2 C 5,0 C 92 % 993,0 hPa 0,0 l/m 0 min 0 min 0 W/m 25,7 km/h (4 Bft) 100,00 %
01.12.2021 17:54 7,5 C 7,2 C 5,0 C 92 % 993,1 hPa 0,0 l/m 0 min 0 min 0 W/m 16,1 km/h (3 Bft) 97,87 %
01.12.2021 17:56 7,5 C 7,2 C 5,0 C 92 % 993,1 hPa 0,0 l/m 0 min 0 min 0 W/m 16,1 km/h (3 Bft) 100,00 %
01.12.2021 17:58 7,5 C 7,2 C 5,0 C 92 % 993,2 hPa 0,0 l/m 0 min 0 min 0 W/m 22,5 km/h (4 Bft) 100,00 %
01.12.2021 18:00 7,5 C 7,2 C 5,0 C 92 % 993,1 hPa 0,0 l/m 0 min 0 min 0 W/m 25,7 km/h (4 Bft) 100,00 %
01.12.2021 18:02 7,5 C 6,7 C 5,0 C 92 % 993,2 hPa 0,0 l/m 0 min 2 min 0 W/m 22,5 km/h (4 Bft) 95,83 %
01.12.2021 18:04 7,5 C 6,7 C 5,0 C 92 % 993,2 hPa 0,0 l/m 0 min 2 min 0 W/m 25,7 km/h (4 Bft) 95,74 %
01.12.2021 18:08 7,5 C 6,7 C 5,0 C 92 % 993,4 hPa 0,0 l/m 0 min 4 min 0 W/m 19,3 km/h (3 Bft) 75,00 %
01.12.2021 18:10 7,5 C 6,7 C 5,0 C 92 % 993,5 hPa 0,0 l/m 0 min 2 min 0 W/m 16,1 km/h (3 Bft) 95,74 %
01.12.2021 18:12 7,5 C 6,7 C 4,4 C 92 % 993,5 hPa 0,0 l/m 0 min 2 min 0 W/m 19,3 km/h (3 Bft) 95,74 %
01.12.2021 18:14 7,4 C 6,1 C 4,4 C 92 % 993,6 hPa 0,2 l/m 0 min 2 min 0 W/m 25,7 km/h (4 Bft) 95,74 %
01.12.2021 18:16 7,4 C 6,1 C 4,4 C 93 % 993,7 hPa 0,0 l/m 0 min 2 min 0 W/m 19,3 km/h (3 Bft) 93,62 %
01.12.2021 18:18 7,4 C 6,1 C 4,4 C 93 % 993,8 hPa 0,2 l/m 0 min 2 min 0 W/m 19,3 km/h (3 Bft) 93,48 %
01.12.2021 18:20 7,3 C 6,1 C 4,4 C 93 % 993,9 hPa 0,2 l/m 0 min 2 min 0 W/m 22,5 km/h (4 Bft) 93,62 %
01.12.2021 18:22 7,2 C 6,1 C 4,4 C 93 % 994,0 hPa 0,0 l/m 0 min 2 min 0 W/m 29,0 km/h (5 Bft) 93,62 %
01.12.2021 18:24 7,0 C 6,1 C 3,9 C 93 % 994,0 hPa 0,0 l/m 0 min 2 min 0 W/m 22,5 km/h (4 Bft) 93,62 %
01.12.2021 18:26 6,9 C 5,6 C 3,9 C 93 % 994,1 hPa 0,0 l/m 0 min 2 min 0 W/m 22,5 km/h (4 Bft) 89,36 %
01.12.2021 18:28 6,8 C 5,6 C 3,9 C 93 % 994,1 hPa 0,0 l/m 0 min 0 min 0 W/m 22,5 km/h (4 Bft) 93,62 %
01.12.2021 18:30 6,6 C 5,6 C 3,9 C 93 % 994,2 hPa 0,0 l/m 0 min 2 min 0 W/m 25,7 km/h (4 Bft) 93,48 %
01.12.2021 18:32 6,5 C 5,6 C 3,3 C 93 % 994,1 hPa 0,0 l/m 0 min 2 min 0 W/m 25,7 km/h (4 Bft) 95,74 %
01.12.2021 18:34 6,5 C 5,6 C 3,3 C 93 % 994,1 hPa 0,2 l/m 0 min 2 min 0 W/m 16,1 km/h (3 Bft) 95,74 %
01.12.2021 18:36 6,4 C 5,6 C 3,3 C 93 % 994,2 hPa 0,0 l/m 0 min 2 min 0 W/m 19,3 km/h (3 Bft) 91,49 %
01.12.2021 18:38 6,4 C 5,6 C 3,3 C 93 % 994,2 hPa 0,0 l/m 0 min 2 min 0 W/m 25,7 km/h (4 Bft) 95,74 %
01.12.2021 18:40 6,4 C 5,6 C 3,3 C 93 % 994,3 hPa 0,0 l/m 0 min 2 min 0 W/m 22,5 km/h (4 Bft) 95,74 %
01.12.2021 18:42 6,4 C 5,6 C 3,3 C 93 % 994,3 hPa 0,2 l/m 0 min 2 min 0 W/m 19,3 km/h (3 Bft) 97,83 %
01.12.2021 18:44 6,4 C 5,6 C 3,3 C 93 % 994,3 hPa 0,0 l/m 0 min 0 min 0 W/m 22,5 km/h (4 Bft) 91,49 %
01.12.2021 18:46 6,4 C 5,6 C 3,3 C 93 % 994,3 hPa 0,0 l/m 0 min 0 min 0 W/m 12,9 km/h (3 Bft) 95,74 %
01.12.2021 18:48 6,4 C 6,1 C 3,9 C 93 % 994,4 hPa 0,0 l/m 0 min 0 min 0 W/m 22,5 km/h (4 Bft) 95,74 %
01.12.2021 18:50 6,4 C 6,1 C 3,9 C 94 % 994,4 hPa 0,0 l/m 0 min 0 min 0 W/m 19,3 km/h (3 Bft) 95,74 %
01.12.2021 18:52 6,4 C 6,1 C 3,9 C 94 % 994,4 hPa 0,0 l/m 0 min 0 min 0 W/m 16,1 km/h (3 Bft) 91,49 %
01.12.2021 18:54 6,5 C 6,1 C 3,9 C 94 % 994,4 hPa 0,0 l/m 0 min 0 min 0 W/m 16,1 km/h (3 Bft) 95,65 %
01.12.2021 18:56 6,5 C 6,1 C 3,9 C 94 % 994,5 hPa 0,0 l/m 0 min 2 min 0 W/m 16,1 km/h (3 Bft) 97,87 %
01.12.2021 18:58 6,5 C 6,1 C 3,9 C 94 % 994,5 hPa 0,0 l/m 0 min 2 min 0 W/m 22,5 km/h (4 Bft) 97,87 %
01.12.2021 19:00 6,5 C 6,1 C 3,9 C 93 % 994,5 hPa 0,0 l/m 0 min 2 min 0 W/m 22,5 km/h (4 Bft) 93,62 %
01.12.2021 19:02 6,5 C 6,1 C 3,9 C 93 % 994,6 hPa 0,0 l/m 0 min 2 min 0 W/m 19,3 km/h (3 Bft) 95,74 %
01.12.2021 19:04 6,5 C 6,1 C 3,9 C 93 % 994,5 hPa 0,0 l/m 0 min 2 min 0 W/m 19,3 km/h (3 Bft) 97,87 %
01.12.2021 19:06 6,5 C 6,1 C 3,9 C 93 % 994,7 hPa 0,0 l/m 0 min 0 min 0 W/m 19,3 km/h (3 Bft) 97,83 %
01.12.2021 19:08 6,5 C 6,1 C 3,3 C 93 % 994,7 hPa 0,0 l/m 0 min 0 min 0 W/m 12,9 km/h (3 Bft) 100,00 %
01.12.2021 19:10 6,5 C 6,1 C 3,3 C 93 % 994,7 hPa 0,0 l/m 0 min 0 min 0 W/m 19,3 km/h (3 Bft) 97,87 %
01.12.2021 19:12 6,4 C 6,1 C 3,3 C 93 % 994,7 hPa 0,0 l/m 0 min 0 min 0 W/m 22,5 km/h (4 Bft) 97,87 %
01.12.2021 19:14 6,4 C 6,1 C 3,3 C 93 % 994,7 hPa 0,0 l/m 0 min 0 min 0 W/m 25,7 km/h (4 Bft) 100,00 %
01.12.2021 19:16 6,4 C 6,1 C 3,3 C 93 % 994,8 hPa 0,0 l/m 0 min 0 min 0 W/m 12,9 km/h (3 Bft) 100,00 %
01.12.2021 19:18 6,4 C 5,6 C 3,3 C 93 % 994,8 hPa 0,0 l/m 0 min 0 min 0 W/m 12,9 km/h (3 Bft) 100,00 %
01.12.2021 19:20 6,4 C 5,6 C 3,3 C 93 % 994,9 hPa 0,0 l/m 0 min 0 min 0 W/m 16,1 km/h (3 Bft) 100,00 %
01.12.2021 19:22 6,4 C 5,6 C 3,3 C 93 % 994,9 hPa 0,0 l/m 0 min 0 min 0 W/m 16,1 km/h (3 Bft) 97,87 %
01.12.2021 19:24 6,4 C 6,1 C 3,3 C 93 % 995,0 hPa 0,0 l/m 0 min 0 min 0 W/m 12,9 km/h (3 Bft) 100,00 %
01.12.2021 19:26 6,4 C 5,6 C 3,3 C 93 % 995,0 hPa 0,0 l/m 0 min 0 min 0 W/m 16,1 km/h (3 Bft) 97,87 %
01.12.2021 19:28 6,4 C 6,1 C 3,3 C 93 % 995,1 hPa 0,0 l/m 0 min 0 min 0 W/m 19,3 km/h (3 Bft) 100,00 %
01.12.2021 19:30 6,4 C 6,1 C 3,3 C 93 % 995,1 hPa 0,0 l/m 0 min 0 min 0 W/m 19,3 km/h (3 Bft) 100,00 %
01.12.2021 19:32 6,4 C 5,6 C 3,3 C 93 % 995,1 hPa 0,0 l/m 0 min 0 min 0 W/m 12,9 km/h (3 Bft) 100,00 %
01.12.2021 19:34 6,4 C 5,6 C 3,3 C 93 % 995,1 hPa 0,0 l/m 0 min 0 min 0 W/m 12,9 km/h (3 Bft) 100,00 %
01.12.2021 19:36 6,4 C 5,6 C 3,3 C 93 % 995,2 hPa 0,0 l/m 0 min 0 min 0 W/m 16,1 km/h (3 Bft) 95,74 %
01.12.2021 19:38 6,4 C 5,6 C 3,3 C 93 % 995,3 hPa 0,0 l/m 0 min 0 min 0 W/m 9,7 km/h (2 Bft) 100,00 %
01.12.2021 19:40 6,4 C 5,6 C 3,3 C 93 % 995,3 hPa 0,0 l/m 0 min 0 min 0 W/m 9,7 km/h (2 Bft) 97,87 %
01.12.2021 19:42 6,4 C 5,6 C 3,3 C 93 % 995,4 hPa 0,0 l/m 0 min 0 min 0 W/m 22,5 km/h (4 Bft) 100,00 %
01.12.2021 19:44 6,4 C 5,6 C 3,3 C 93 % 995,4 hPa 0,0 l/m 0 min 0 min 0 W/m 9,7 km/h (2 Bft) 100,00 %
01.12.2021 19:46 6,3 C 5,6 C 3,3 C 93 % 995,4 hPa 0,0 l/m 0 min 0 min 0 W/m 9,7 km/h (2 Bft) 95,74 %
01.12.2021 19:48 6,3 C 5,6 C 3,3 C 93 % 995,4 hPa 0,0 l/m 0 min 0 min 0 W/m 12,9 km/h (3 Bft) 97,87 %
01.12.2021 19:50 6,3 C 5,6 C 3,3 C 93 % 995,5 hPa 0,0 l/m 0 min 0 min 0 W/m 6,4 km/h (2 Bft) 97,87 %
01.12.2021 19:52 6,3 C 5,6 C 3,3 C 93 % 995,5 hPa 0,0 l/m 0 min 0 min 0 W/m 9,7 km/h (2 Bft) 97,87 %
01.12.2021 19:54 6,2 C 5,6 C 3,3 C 93 % 995,6 hPa 0,0 l/m 0 min 0 min 0 W/m 16,1 km/h (3 Bft) 97,83 %
01.12.2021 19:56 6,2 C 5,6 C 3,3 C 93 % 995,7 hPa 0,0 l/m 0 min 0 min 0 W/m 12,9 km/h (3 Bft) 97,87 %
01.12.2021 19:58 6,2 C 5,6 C 3,3 C 93 % 995,8 hPa 0,0 l/m 0 min 0 min 0 W/m 12,9 km/h (3 Bft) 97,87 %
01.12.2021 20:00 6,2 C 5,6 C 3,3 C 93 % 995,8 hPa 0,0 l/m 0 min 0 min 0 W/m 12,9 km/h (3 Bft) 97,87 %
01.12.2021 20:02 6,2 C 5,6 C 3,3 C 93 % 995,8 hPa 0,0 l/m 0 min 0 min 0 W/m 12,9 km/h (3 Bft) 95,74 %
01.12.2021 20:04 6,2 C 5,6 C 3,3 C 93 % 995,9 hPa 0,0 l/m 0 min 0 min 0 W/m 12,9 km/h (3 Bft) 97,92 %
01.12.2021 20:06 6,2 C 5,6 C 3,3 C 93 % 995,9 hPa 0,0 l/m 0 min 0 min 0 W/m 12,9 km/h (3 Bft) 97,83 %
01.12.2021 20:08 6,2 C 5,6 C 3,3 C 93 % 995,9 hPa 0,0 l/m 0 min 0 min 0 W/m 9,7 km/h (2 Bft) 97,87 %
01.12.2021 20:10 6,2 C 5,6 C 3,3 C 93 % 995,9 hPa 0,0 l/m 0 min 0 min 0 W/m 16,1 km/h (3 Bft) 97,87 %
01.12.2021 20:12 6,1 C 5,6 C 3,3 C 93 % 995,9 hPa 0,0 l/m 0 min 0 min 0 W/m 6,4 km/h (2 Bft) 95,74 %
01.12.2021 20:14 6,1 C 5,6 C 3,3 C 93 % 996,0 hPa 0,0 l/m 0 min 0 min 0 W/m 19,3 km/h (3 Bft) 97,87 %
01.12.2021 20:16 6,2 C 5,6 C 3,3 C 93 % 996,0 hPa 0,0 l/m 0 min 0 min 0 W/m 12,9 km/h (3 Bft) 97,83 %
01.12.2021 20:18 6,1 C 5,6 C 3,3 C 93 % 996,1 hPa 0,0 l/m 0 min 0 min 0 W/m 16,1 km/h (3 Bft) 100,00 %
01.12.2021 20:20 6,1 C 5,6 C 3,3 C 94 % 996,0 hPa 0,0 l/m 0 min 0 min 0 W/m 12,9 km/h (3 Bft) 100,00 %
01.12.2021 20:22 6,1 C 5,6 C 3,3 C 94 % 996,0 hPa 0,0 l/m 0 min 0 min 0 W/m 9,7 km/h (2 Bft) 100,00 %
01.12.2021 20:24 6,1 C 5,6 C 3,3 C 94 % 996,0 hPa 0,0 l/m 0 min 0 min 0 W/m 6,4 km/h (2 Bft) 100,00 %
01.12.2021 20:26 6,1 C 5,6 C 3,3 C 94 % 996,0 hPa 0,0 l/m 0 min 0 min 0 W/m 19,3 km/h (3 Bft) 100,00 %
01.12.2021 20:28 6,0 C 5,6 C 3,3 C 94 % 996,1 hPa 0,0 l/m 0 min 0 min 0 W/m 16,1 km/h (3 Bft) 97,83 %
01.12.2021 20:30 6,0 C 5,6 C 3,3 C 94 % 996,2 hPa 0,0 l/m 0 min 0 min 0 W/m 9,7 km/h (2 Bft) 70,21 %
01.12.2021 20:32 6,0 C 5,6 C 3,3 C 94 % 996,2 hPa 0,0 l/m 0 min 0 min 0 W/m 16,1 km/h (3 Bft) 86,05 %
01.12.2021 20:34 6,0 C 5,6 C 3,3 C 94 % 996,3 hPa 0,0 l/m 0 min 0 min 0 W/m 6,4 km/h (2 Bft) 97,87 %
01.12.2021 20:36 6,0 C 5,6 C 3,3 C 94 % 996,3 hPa 0,0 l/m 0 min 0 min 0 W/m 6,4 km/h (2 Bft) 100,00 %
01.12.2021 20:38 6,0 C 5,0 C 3,3 C 94 % 996,3 hPa 0,0 l/m 0 min 0 min 0 W/m 6,4 km/h (2 Bft) 100,00 %
01.12.2021 20:40 5,9 C 5,0 C 3,3 C 94 % 996,3 hPa 0,0 l/m 0 min 0 min 0 W/m 9,7 km/h (2 Bft) 100,00 %
01.12.2021 20:42 5,9 C 5,0 C 3,3 C 94 % 996,3 hPa 0,0 l/m 0 min 0 min 0 W/m 9,7 km/h (2 Bft) 100,00 %
01.12.2021 20:44 5,9 C 5,0 C 3,3 C 94 % 996,3 hPa 0,0 l/m 0 min 0 min 0 W/m 16,1 km/h (3 Bft) 97,87 %
01.12.2021 20:46 5,9 C 5,0 C 3,3 C 94 % 996,3 hPa 0,0 l/m 0 min 0 min 0 W/m 12,9 km/h (3 Bft) 97,87 %
01.12.2021 20:48 5,9 C 5,0 C 3,3 C 94 % 996,3 hPa 0,0 l/m 0 min 0 min 0 W/m 12,9 km/h (3 Bft) 100,00 %
01.12.2021 20:50 5,9 C 5,0 C 3,3 C 94 % 996,3 hPa 0,0 l/m 0 min 0 min 0 W/m 6,4 km/h (2 Bft) 97,87 %
01.12.2021 20:52 5,9 C 5,0 C 3,3 C 94 % 996,4 hPa 0,0 l/m 0 min 0 min 0 W/m 6,4 km/h (2 Bft) 97,83 %
01.12.2021 20:54 5,9 C 5,0 C 3,3 C 94 % 996,4 hPa 0,0 l/m 0 min 0 min 0 W/m 16,1 km/h (3 Bft) 97,87 %
01.12.2021 20:56 5,9 C 5,0 C 3,3 C 94 % 996,4 hPa 0,0 l/m 0 min 0 min 0 W/m 9,7 km/h (2 Bft) 97,87 %
01.12.2021 20:58 5,9 C 5,0 C 3,3 C 94 % 996,5 hPa 0,0 l/m 0 min 0 min 0 W/m 6,4 km/h (2 Bft) 95,74 %
01.12.2021 21:00 5,9 C 5,0 C 3,3 C 94 % 996,5 hPa 0,0 l/m 0 min 0 min 0 W/m 6,4 km/h (2 Bft) 97,87 %
01.12.2021 21:02 5,9 C 5,0 C 3,3 C 94 % 996,6 hPa 0,0 l/m 0 min 0 min 0 W/m 9,7 km/h (2 Bft) 97,87 %
01.12.2021 21:04 5,8 C 5,0 C 3,3 C 94 % 996,6 hPa 0,0 l/m 0 min 0 min 0 W/m 6,4 km/h (2 Bft) 97,87 %
01.12.2021 21:06 5,8 C 5,0 C 3,3 C 94 % 996,7 hPa 0,0 l/m 0 min 0 min 0 W/m 12,9 km/h (3 Bft) 97,87 %
01.12.2021 21:08 5,8 C 5,0 C 3,3 C 94 % 996,6 hPa 0,0 l/m 0 min 0 min 0 W/m 6,4 km/h (2 Bft) 97,87 %
01.12.2021 21:10 5,8 C 5,0 C 3,3 C 94 % 996,7 hPa 0,0 l/m 0 min 0 min 0 W/m 6,4 km/h (2 Bft) 95,74 %
01.12.2021 21:12 5,8 C 5,0 C 3,3 C 94 % 996,7 hPa 0,0 l/m 0 min 0 min 0 W/m 6,4 km/h (2 Bft) 97,87 %
01.12.2021 21:14 5,7 C 5,0 C 3,3 C 94 % 996,7 hPa 0,0 l/m 0 min 0 min 0 W/m 6,4 km/h (2 Bft) 97,87 %
01.12.2021 21:16 5,7 C 5,0 C 3,3 C 94 % 996,7 hPa 0,0 l/m 0 min 0 min 0 W/m 6,4 km/h (2 Bft) 97,83 %
01.12.2021 21:18 5,6 C 5,0 C 3,3 C 94 % 996,8 hPa 0,0 l/m 0 min 0 min 0 W/m 9,7 km/h (2 Bft) 97,87 %
01.12.2021 21:20 5,6 C 5,0 C 3,3 C 94 % 996,9 hPa 0,0 l/m 0 min 0 min 0 W/m 6,4 km/h (2 Bft) 97,87 %
01.12.2021 21:22 5,6 C 5,0 C 3,3 C 94 % 996,9 hPa 0,0 l/m 0 min 0 min 0 W/m 12,9 km/h (3 Bft) 95,74 %
01.12.2021 21:24 5,6 C 5,0 C 3,3 C 94 % 996,9 hPa 0,0 l/m 0 min 0 min 0 W/m 6,4 km/h (2 Bft) 95,74 %
01.12.2021 21:26 5,6 C 5,0 C 3,3 C 94 % 996,9 hPa 0,0 l/m 0 min 0 min 0 W/m 12,9 km/h (3 Bft) 95,74 %
01.12.2021 21:28 5,5 C 5,0 C 3,3 C 94 % 996,9 hPa 0,0 l/m 0 min 0 min 0 W/m 12,9 km/h (3 Bft) 93,48 %
01.12.2021 21:30 5,5 C 5,0 C 3,3 C 94 % 997,0 hPa 0,0 l/m 0 min 0 min 0 W/m 12,9 km/h (3 Bft) 89,36 %
01.12.2021 21:32 5,5 C 5,0 C 3,3 C 94 % 997,1 hPa 0,0 l/m 0 min 0 min 0 W/m 16,1 km/h (3 Bft) 97,87 %
01.12.2021 21:34 5,5 C 5,0 C 3,3 C 95 % 997,1 hPa 0,0 l/m 0 min 0 min 0 W/m 12,9 km/h (3 Bft) 97,87 %
01.12.2021 21:36 5,5 C 5,0 C 3,3 C 95 % 997,1 hPa 0,0 l/m 0 min 0 min 0 W/m 19,3 km/h (3 Bft) 93,62 %
01.12.2021 21:38 5,5 C 5,0 C 3,3 C 94 % 997,1 hPa 0,0 l/m 0 min 0 min 0 W/m 12,9 km/h (3 Bft) 95,74 %
01.12.2021 21:40 5,5 C 5,0 C 3,3 C 94 % 997,2 hPa 0,0 l/m 0 min 0 min 0 W/m 12,9 km/h (3 Bft) 95,65 %
01.12.2021 21:42 5,5 C 5,0 C 3,3 C 94 % 997,2 hPa 0,0 l/m 0 min 0 min 0 W/m 9,7 km/h (2 Bft) 95,74 %
01.12.2021 21:44 5,4 C 5,0 C 3,3 C 94 % 997,3 hPa 0,0 l/m 0 min 0 min 0 W/m 12,9 km/h (3 Bft) 95,74 %
01.12.2021 21:46 5,4 C 5,0 C 3,3 C 94 % 997,2 hPa 0,0 l/m 0 min 0 min 0 W/m 6,4 km/h (2 Bft) 93,62 %
01.12.2021 21:48 5,4 C 4,4 C 3,3 C 95 % 997,3 hPa 0,0 l/m 0 min 0 min 0 W/m 6,4 km/h (2 Bft) 97,87 %
01.12.2021 21:50 5,4 C 5,0 C 3,3 C 95 % 997,3 hPa 0,0 l/m 0 min 0 min 0 W/m 9,7 km/h (2 Bft) 95,74 %
01.12.2021 21:52 5,4 C 5,0 C 2,8 C 95 % 997,4 hPa 0,0 l/m 0 min 0 min 0 W/m 9,7 km/h (2 Bft) 95,65 %
01.12.2021 21:54 5,4 C 5,0 C 2,8 C 95 % 997,4 hPa 0,0 l/m 0 min 0 min 0 W/m 9,7 km/h (2 Bft) 95,74 %
01.12.2021 21:56 5,4 C 5,0 C 2,8 C 95 % 997,4 hPa 0,0 l/m 0 min 0 min 0 W/m 12,9 km/h (3 Bft) 93,62 %
01.12.2021 21:58 5,4 C 5,0 C 2,8 C 95 % 997,4 hPa 0,0 l/m 0 min 0 min 0 W/m 12,9 km/h (3 Bft) 95,74 %
01.12.2021 22:00 5,3 C 4,4 C 2,8 C 95 % 997,4 hPa 0,0 l/m 0 min 0 min 0 W/m 6,4 km/h (2 Bft) 95,74 %
01.12.2021 22:02 5,3 C 4,4 C 2,8 C 95 % 997,4 hPa 0,0 l/m 0 min 0 min 0 W/m 12,9 km/h (3 Bft) 94,29 %
01.12.2021 22:04 5,3 C 4,4 C 2,8 C 95 % 997,4 hPa 0,0 l/m 0 min 0 min 0 W/m 19,3 km/h (3 Bft) 95,92 %
01.12.2021 22:06 5,3 C 4,4 C 2,8 C 95 % 997,4 hPa 0,0 l/m 0 min 0 min 0 W/m 12,9 km/h (3 Bft) 93,48 %
01.12.2021 22:08 5,3 C 4,4 C 2,8 C 95 % 997,4 hPa 0,0 l/m 0 min 0 min 0 W/m 6,4 km/h (2 Bft) 97,87 %
01.12.2021 22:10 5,3 C 4,4 C 2,8 C 95 % 997,4 hPa 0,0 l/m 0 min 0 min 0 W/m 6,4 km/h (2 Bft) 97,87 %
01.12.2021 22:12 5,3 C 4,4 C 2,8 C 95 % 997,4 hPa 0,0 l/m 0 min 0 min 0 W/m 9,7 km/h (2 Bft) 97,87 %
01.12.2021 22:14 5,2 C 4,4 C 2,8 C 95 % 997,5 hPa 0,0 l/m 0 min 0 min 0 W/m 6,4 km/h (2 Bft) 95,74 %
01.12.2021 22:16 5,2 C 4,4 C 2,8 C 95 % 997,5 hPa 0,0 l/m 0 min 0 min 0 W/m 12,9 km/h (3 Bft) 97,87 %
01.12.2021 22:18 5,2 C 4,4 C 2,8 C 94 % 997,5 hPa 0,0 l/m 0 min 0 min 0 W/m 9,7 km/h (2 Bft) 95,65 %
01.12.2021 22:20 5,1 C 4,4 C 2,8 C 94 % 997,5 hPa 0,0 l/m 0 min 0 min 0 W/m 6,4 km/h (2 Bft) 97,87 %
01.12.2021 22:22 5,1 C 4,4 C 2,8 C 94 % 997,5 hPa 0,0 l/m 0 min 0 min 0 W/m 6,4 km/h (2 Bft) 97,87 %
01.12.2021 22:24 5,1 C 4,4 C 2,8 C 94 % 997,5 hPa 0,0 l/m 0 min 0 min 0 W/m 9,7 km/h (2 Bft) 97,87 %
01.12.2021 22:26 5,1 C 4,4 C 2,8 C 94 % 997,6 hPa 0,0 l/m 0 min 0 min 0 W/m 12,9 km/h (3 Bft) 95,74 %
01.12.2021 22:28 5,1 C 4,4 C 2,8 C 94 % 997,6 hPa 0,0 l/m 0 min 0 min 0 W/m 12,9 km/h (3 Bft) 100,00 %
01.12.2021 22:30 5,1 C 4,4 C 2,8 C 94 % 997,6 hPa 0,0 l/m 0 min 0 min 0 W/m 6,4 km/h (2 Bft) 95,65 %
01.12.2021 22:32 5,1 C 4,4 C 2,8 C 94 % 997,6 hPa 0,0 l/m 0 min 0 min 0 W/m 6,4 km/h (2 Bft) 100,00 %
01.12.2021 22:34 5,1 C 4,4 C 2,8 C 94 % 997,6 hPa 0,0 l/m 0 min 0 min 0 W/m 6,4 km/h (2 Bft) 100,00 %
01.12.2021 22:36 5,1 C 4,4 C 2,8 C 94 % 997,7 hPa 0,0 l/m 0 min 0 min 0 W/m 6,4 km/h (2 Bft) 97,87 %
01.12.2021 22:38 5,1 C 4,4 C 2,8 C 94 % 997,7 hPa 0,0 l/m 0 min 0 min 0 W/m 6,4 km/h (2 Bft) 100,00 %
01.12.2021 22:40 5,1 C 4,4 C 2,8 C 94 % 997,7 hPa 0,0 l/m 0 min 0 min 0 W/m 6,4 km/h (2 Bft) 65,96 %
01.12.2021 22:42 5,1 C 4,4 C 2,8 C 94 % 997,7 hPa 0,0 l/m 0 min 0 min 0 W/m 6,4 km/h (2 Bft) 88,64 %
01.12.2021 22:44 5,0 C 4,4 C 2,8 C 94 % 997,7 hPa 0,0 l/m 0 min 0 min 0 W/m 6,4 km/h (2 Bft) 100,00 %
01.12.2021 22:46 5,0 C 4,4 C 2,8 C 94 % 997,8 hPa 0,0 l/m 0 min 0 min 0 W/m 12,9 km/h (3 Bft) 100,00 %
01.12.2021 22:48 5,0 C 4,4 C 2,8 C 94 % 997,8 hPa 0,0 l/m 0 min 0 min 0 W/m 6,4 km/h (2 Bft) 100,00 %
01.12.2021 22:50 5,0 C 4,4 C 2,8 C 94 % 997,8 hPa 0,0 l/m 0 min 0 min 0 W/m 9,7 km/h (2 Bft) 100,00 %
01.12.2021 22:52 5,0 C 4,4 C 2,8 C 94 % 997,8 hPa 0,0 l/m 0 min 0 min 0 W/m 9,7 km/h (2 Bft) 100,00 %
01.12.2021 22:54 5,0 C 4,4 C 2,8 C 94 % 997,9 hPa 0,0 l/m 0 min 0 min 0 W/m 9,7 km/h (2 Bft) 100,00 %
01.12.2021 22:56 5,1 C 4,4 C 2,8 C 94 % 997,8 hPa 0,0 l/m 0 min 0 min 0 W/m 6,4 km/h (2 Bft) 100,00 %
01.12.2021 22:58 5,1 C 4,4 C 2,8 C 94 % 997,9 hPa 0,0 l/m 0 min 0 min 0 W/m 6,4 km/h (2 Bft) 100,00 %
01.12.2021 23:00 5,0 C 4,4 C 2,8 C 94 % 997,9 hPa 0,0 l/m 0 min 0 min 0 W/m 6,4 km/h (2 Bft) 100,00 %
01.12.2021 23:02 5,1 C 4,4 C 2,8 C 94 % 997,9 hPa 0,0 l/m 0 min 0 min 0 W/m 9,7 km/h (2 Bft) 98,11 %
01.12.2021 23:04 5,0 C 4,4 C 2,8 C 94 % 997,9 hPa 0,0 l/m 0 min 0 min 0 W/m 6,4 km/h (2 Bft) 100,00 %
01.12.2021 23:06 5,0 C 4,4 C 2,8 C 94 % 997,9 hPa 0,0 l/m 0 min 0 min 0 W/m 12,9 km/h (3 Bft) 100,00 %
01.12.2021 23:08 5,0 C 4,4 C 2,8 C 94 % 997,9 hPa 0,0 l/m 0 min 0 min 0 W/m 6,4 km/h (2 Bft) 100,00 %
01.12.2021 23:10 5,0 C 4,4 C 2,8 C 95 % 998,1 hPa 0,0 l/m 0 min 0 min 0 W/m 12,9 km/h (3 Bft) 100,00 %
01.12.2021 23:12 5,0 C 4,4 C 2,8 C 95 % 998,1 hPa 0,0 l/m 0 min 0 min 0 W/m 6,4 km/h (2 Bft) 95,74 %
01.12.2021 23:14 5,0 C 4,4 C 2,8 C 95 % 998,0 hPa 0,0 l/m 0 min 0 min 0 W/m 6,4 km/h (2 Bft) 97,87 %
01.12.2021 23:16 5,0 C 4,4 C 2,8 C 95 % 998,1 hPa 0,0 l/m 0 min 0 min 0 W/m 6,4 km/h (2 Bft) 97,50 %
01.12.2021 23:18 5,0 C 4,4 C 2,8 C 95 % 998,1 hPa 0,0 l/m 0 min 0 min 0 W/m 6,4 km/h (2 Bft) 97,87 %
01.12.2021 23:20 4,9 C 4,4 C 2,8 C 95 % 998,1 hPa 0,0 l/m 0 min 0 min 0 W/m 6,4 km/h (2 Bft) 91,49 %
01.12.2021 23:22 4,9 C 4,4 C 2,8 C 95 % 998,0 hPa 0,0 l/m 0 min 0 min 0 W/m 12,9 km/h (3 Bft) 95,74 %
01.12.2021 23:24 4,9 C 4,4 C 2,8 C 95 % 998,1 hPa 0,0 l/m 0 min 0 min 0 W/m 12,9 km/h (3 Bft) 95,74 %
01.12.2021 23:26 4,9 C 4,4 C 2,8 C 95 % 998,1 hPa 0,0 l/m 0 min 0 min 0 W/m 6,4 km/h (2 Bft) 95,74 %
01.12.2021 23:28 4,9 C 4,4 C 2,8 C 95 % 998,1 hPa 0,0 l/m 0 min 0 min 0 W/m 9,7 km/h (2 Bft) 93,48 %
01.12.2021 23:30 4,9 C 4,4 C 2,8 C 95 % 998,1 hPa 0,0 l/m 0 min 0 min 0 W/m 6,4 km/h (2 Bft) 95,74 %
01.12.2021 23:32 4,9 C 4,4 C 2,8 C 95 % 998,1 hPa 0,0 l/m 0 min 0 min 0 W/m 6,4 km/h (2 Bft) 96,30 %
01.12.2021 23:34 4,9 C 4,4 C 2,8 C 95 % 998,1 hPa 0,0 l/m 0 min 0 min 0 W/m 16,1 km/h (3 Bft) 95,74 %
01.12.2021 23:36 4,9 C 4,4 C 2,8 C 95 % 998,1 hPa 0,0 l/m 0 min 0 min 0 W/m 12,9 km/h (3 Bft) 95,74 %
01.12.2021 23:38 4,8 C 4,4 C 2,8 C 95 % 998,1 hPa 0,0 l/m 0 min 0 min 0 W/m 9,7 km/h (2 Bft) 95,65 %
01.12.2021 23:40 4,8 C 4,4 C 2,8 C 95 % 998,1 hPa 0,0 l/m 0 min 0 min 0 W/m 12,9 km/h (3 Bft) 95,74 %
01.12.2021 23:42 4,8 C 4,4 C 2,8 C 95 % 998,0 hPa 0,0 l/m 0 min 0 min 0 W/m 12,9 km/h (3 Bft) 95,74 %
01.12.2021 23:44 4,8 C 4,4 C 2,8 C 95 % 998,1 hPa 0,0 l/m 0 min 0 min 0 W/m 16,1 km/h (3 Bft) 91,49 %
01.12.2021 23:46 4,8 C 4,4 C 2,8 C 95 % 998,1 hPa 0,0 l/m 0 min 0 min 0 W/m 9,7 km/h (2 Bft) 91,49 %
01.12.2021 23:48 4,8 C 4,4 C 2,8 C 95 % 998,1 hPa 0,0 l/m 0 min 0 min 0 W/m 9,7 km/h (2 Bft) 95,74 %
01.12.2021 23:50 4,8 C 4,4 C 2,8 C 95 % 998,2 hPa 0,0 l/m 0 min 0 min 0 W/m 9,7 km/h (2 Bft) 97,83 %
01.12.2021 23:52 4,8 C 4,4 C 2,8 C 95 % 998,1 hPa 0,0 l/m 0 min 0 min 0 W/m 9,7 km/h (2 Bft) 100,00 %
01.12.2021 23:54 4,8 C 4,4 C 2,8 C 95 % 998,1 hPa 0,0 l/m 0 min 0 min 0 W/m 9,7 km/h (2 Bft) 100,00 %
01.12.2021 23:56 4,8 C 4,4 C 2,8 C 95 % 998,2 hPa 0,0 l/m 0 min 0 min 0 W/m 12,9 km/h (3 Bft) 100,00 %
01.12.2021 23:58 4,7 C 4,4 C 2,8 C 95 % 998,2 hPa 0,0 l/m 0 min 0 min 0 W/m 6,4 km/h (2 Bft) 100,00 %
_ Min-Zeit 23:58 21:48 21:52 14:58 11:58 - - - - 19:50 16:42
Minimum _ 4,7 C 4,4 C 2,8 C 88 % 991,3 hPa - - - - 6,4 km/h (2 Bft) 53,33 %
_ Max-Zeit 00:00 00:00 00:00 00:00 00:00 00:08 13:56 00:08 13:20 08:22 00:02
Maximum _ 9,1 C 8,3 C 8,3 C 98 % 1004,7 hPa 0,2 l/m 2 min 4 min 142 W/m 74,0 km/h
S (8 Bft)
100,00 %
Durchschnitt _ 7,8 C 7,2 C 5,9 C 93 % 995,9 hPa #1,8 l/m #8 min. #5:10 h 48 W/m 26,0 km/h (4 Bft) 97,04 %
© 2021 W. Hausmann